Preview of NWS' New Version of Forecast
This preview is not operational and should not be used for support decisions.
Latest weather observations around

Half Moon Bay Airport (KHAF)

Using English Units (Switch to International System of Units)
Date/ Time (PDT) Wind (mph) Vis. (mi) Weather Sky Cond. Temp (°F) Rel. Humidity Wind Chill (°F) Heat Index (°F) Pressure Precip. (in)
Air Dwpt 6 hour Altimeter (inHg) Sea level (inHg) 1 hr 3 hr 6 hr
Max Min
Jul 17 11:55 S 14 9 Partly Cloudy SCT010 61 55     82%     29.95        
Jul 17 11:40 S 13 9 Mostly Cloudy BKN010 61 55     82%     29.95        
Jul 17 11:35 S 11 9 Mostly Cloudy BKN010 61 55     82%     29.95        
Jul 17 11:20 SSE 10 8 Mostly Cloudy BKN010 59 55     88%     29.94        
Jul 17 11:15 S 10 7 Mostly Cloudy BKN010 59 55     88%     29.94        
Jul 17 11:00 S 9 8 Mostly Cloudy BKN010 59 55     88%     29.94        
Jul 17 10:55 SSE 10 7 Mostly Cloudy BKN008 59 55     88%     29.94        
Jul 17 10:40 SSE 9 7 Cloudy OVC008 59 55     88%     29.94        
Jul 17 10:35 SSE 9 7 Cloudy OVC008 59 55     88%     29.94        
Jul 17 10:20 SSE 9 7 Cloudy OVC008 57 55     94%     29.93        
Jul 17 10:15 SSE 9 6 Fog/Mist OVC008 57 55     94%     29.94        
Jul 17 09:55 SE 7 6 Fog/Mist OVC006 57 55     94%     29.94        
Jul 17 09:40 SSE 8 7 Cloudy OVC006 57 55     94%     29.94        
Jul 17 09:35 SE 8 8 Cloudy OVC006 57 55     94%     29.94        
Jul 17 09:20 SSE 8 7 Cloudy OVC006 57 54     88%     29.94        
Jul 17 09:15 SSE 7 7 Cloudy OVC006 57 55     94%     29.94        
Jul 17 09:00 S 7 6 Fog/Mist OVC006 57 55     94%     29.94        
Jul 17 08:55 SSE 6 5 Fog/Mist BKN006 OVC011 57 55     94%     29.93        
Jul 17 08:40 SSE 7 5 Fog/Mist SCT006 BKN011 57 55     94%     29.93        
Jul 17 08:35 SSE 8 5 Fog/Mist SCT006 OVC011 57 55     94%     29.93        
Jul 17 08:20 SSE 7 5 Fog/Mist OVC011 57 55     94%     29.93        
Jul 17 08:15 SSE 7 5 Fog/Mist BKN008 OVC011 57 54     88%     29.92        
Jul 17 08:00 SE 8 5 Fog/Mist OVC008 57 55     94%     29.92        
Jul 17 07:55 SSE 7 5 Fog/Mist OVC008 57 55     94%     29.92        
Jul 17 07:35 SSE 6 5 Fog/Mist OVC008 57 54     88%     29.92        
Jul 17 07:20 SSE 7 5 Fog/Mist OVC008 57 54     88%     29.91        
Jul 17 07:15 SSE 7 5 Fog/Mist OVC008 55 54     94%     29.91        
Jul 17 07:00 S 6 5 Fog/Mist OVC008 55 54     94%     29.92        
Jul 17 06:55 S 7 4 Fog/Mist OVC008 55 54     94%     29.91        
Jul 17 06:40 S 5 3 Fog/Mist OVC008 55 54     94%     29.92        
Jul 17 06:35 S 5 3 Fog/Mist OVC008 55 54     94%     29.91        
Jul 17 06:20 SSW 5 3 Fog/Mist OVC008 55 54     94%     29.91        
Jul 17 06:15 S 6 4 Fog/Mist OVC008 55 54     94%     29.91        
Jul 17 06:00 S 6 5 Fog/Mist BKN006 OVC010 57 55     94%     29.91        
Jul 17 05:55 SSE 6 5 Fog/Mist OVC008 55 55     100%     29.91        
Jul 17 05:35 S 7 3 Fog/Mist OVC008 57 55     94%     29.9        
Jul 17 05:20 SSE 6 5 Fog/Mist OVC008 55 55     100%     29.9        
Jul 17 05:15 SSE 5 5 Fog/Mist OVC008 55 54     94%     29.9        
Jul 17 05:00 S 6 5 Fog/Mist OVC008 55 54     94%     29.9        
Jul 17 04:55 S 6 5 Fog/Mist OVC008 55 54     94%     29.9        
Jul 17 04:40 S 6 5 Fog/Mist OVC008 55 54     94%     29.9        
Jul 17 04:35 S 6 5 Fog/Mist OVC008 55 54     94%     29.9        
Jul 17 04:20 S 5 4 Fog/Mist OVC008 55 54     94%     29.9        
Jul 17 04:15 SSW 5 4 Fog/Mist OVC008 55 54     94%     29.9        
Jul 17 04:00 S 5 5 Fog/Mist OVC008 55 54     94%     29.9        
Jul 17 03:55 S 5 4 Fog/Mist OVC008 55 54     94%     29.9        
Jul 17 03:35 Calm 5 Fog/Mist OVC008 55 54     94%     29.9        
Jul 17 03:20 Calm 5 Fog/Mist OVC008 57 54     88%     29.9        
Jul 17 03:15 Calm 5 Fog/Mist OVC008 55 54     94%     29.9        
Jul 17 03:00 Calm 5 Fog/Mist OVC008 57 54     88%     29.91        
Jul 17 02:55 Calm 5 Fog/Mist OVC008 57 54     88%     29.91        
Jul 17 02:40 Calm 5 Fog/Mist OVC008 57 54     88%     29.91        
Jul 17 02:35 Calm 5 Fog/Mist OVC008 57 54     88%     29.91        
Jul 17 02:20 WNW 3 6 Fog/Mist OVC008 57 54     88%     29.92        
Jul 17 02:15 W 3 6 Fog/Mist OVC008 57 54     88%     29.92        
Jul 17 02:00 Calm 7 Cloudy OVC008 57 54     88%     29.92        
Jul 17 01:55 WNW 3 7 Cloudy OVC008 57 54     88%     29.92        
Jul 17 01:35 WNW 5 7 Cloudy OVC008 57 54     88%     29.93        
Jul 17 01:20 NW 6 7 Cloudy OVC008 57 54     88%     29.92        
Jul 17 01:15 NW 7 6 Fog/Mist OVC008 57 55     94%     29.93        
Jul 17 01:00 NW 8 7 Cloudy OVC008 57 55     94%     29.93        
Jul 17 00:55 WNW 8 7 Cloudy OVC008 57 55     94%     29.93        
Jul 17 00:40 NW 7 7 Cloudy OVC008 57 55     94%     29.93        
Jul 17 00:35 WNW 6 7 Cloudy OVC008 57 55     94%     29.93        
Jul 17 00:20 WNW 7 7 Cloudy OVC008 57 55     94%     29.94        
Jul 17 00:15 NW 7 7 Cloudy OVC006 57 55     94%     29.94        
Jul 17 00:00 NW 6 6 Fog/Mist OVC006 57 55     94%     29.93        
Jul 16 23:55 WNW 6 7 Cloudy OVC006 57 55     94%     29.93        
Jul 16 23:35 NW 8 6 Clear   57 55     94%     29.93        
Jul 16 23:20 NW 10 5 Clear   57 55     94%     29.94        
Jul 16 23:15 NW 8 5 Clear   57 55     94%     29.94        
Jul 16 23:00 NW 10 5 Clear   57 55     94%     29.94        
Jul 16 22:55 NW 8 5 Clear   57 55     94%     29.94        
Jul 16 22:40 NW 7 5 Fog/Mist OVC006 57 55     94%     29.95        
Jul 16 22:35 NW 6 5 Fog/Mist OVC006 57 55     94%     29.95        
Jul 16 22:20 NW 9 5 Fog/Mist OVC006 57 55     94%     29.95        
Jul 16 22:15 NW 9 6 Fog/Mist OVC006 59 55     88%     29.95        
Jul 16 22:00 NW 8 7 Cloudy OVC006 59 55     88%     29.95        
Jul 16 21:55 NNW 6 7 Cloudy OVC006 59 55     88%     29.95        
Jul 16 21:40 NW 9 7 Cloudy OVC006 59 55     88%     29.95        
Jul 16 21:35 NW 13 7 Cloudy OVC006 59 55     88%     29.95        
Jul 16 21:15 WNW 11 7 Cloudy OVC006 57 55     94%     29.95        
Jul 16 21:00 NW 11 5 Fog/Mist OVC006 57 55     94%     29.95        
Jul 16 20:55 NW 10 6 Fog/Mist OVC006 57 55     94%     29.95        
Jul 16 20:40 NW 7 5 Fog/Mist OVC005 57 55     94%     29.96        
Jul 16 20:35 NNW 11 5 Fog/Mist OVC005 57 55     94%     29.96        
Jul 16 20:20 NNW 6 5 Fog/Mist OVC005 57 55     94%     29.96        
Jul 16 20:15 NNW 7 4 Fog/Mist OVC005 57 55     94%     29.96        
Jul 16 20:00 NNW 8 5 Fog/Mist OVC005 57 55     94%     29.96        
Jul 16 19:55 NNW 6 5 Fog/Mist OVC005 57 55     94%     29.96        
Jul 16 19:40 NW 7 5 Fog/Mist OVC005 57 55     94%     29.96        
Jul 16 19:35 NW 8 5 Fog/Mist OVC005 57 55     94%     29.96        
Jul 16 19:15 NW 6 6 Fog/Mist OVC005 57 55     94%     29.96        
Jul 16 19:00 NW 8 6 Fog/Mist OVC005 59 55     88%     29.96        
Jul 16 18:55 NW 7 6 Fog/Mist OVC005 57 55     94%     29.96        
Jul 16 18:40 NNW 8 7 Cloudy OVC008 59 55     88%     29.96        
Jul 16 18:35 NW 9 8 Cloudy OVC008 59 55     88%     29.96        
Jul 16 18:20 NNW 9 8 Cloudy OVC008 59 55     88%     29.96        
Jul 16 16:00 NNW 8 8 Mostly Clear FEW014 63 55     77%     29.98        
Jul 16 15:55 NW 9 8 Clear CLR 63 55     77%     29.98        
Jul 16 15:40 WNW 10 9 Clear CLR 63 55     77%     29.98        
Jul 16 15:35 NW 10 9 Clear CLR 63 55     77%     29.98        
Jul 16 15:20 WNW 7 9 Mostly Clear FEW014 63 55     77%     29.98        
Jul 16 15:15 W 8 10 Mostly Clear FEW014 63 55     77%     29.98        
Jul 16 14:55 W 8 9 Clear CLR 63 57     83%     29.98        
Jul 16 14:40 W 9 7 Clear CLR 64 57     77%     29.98        
Jul 16 14:35 W 6 9 Clear CLR 63 57     83%     29.98        
Jul 16 14:20 W 9 9 Clear CLR 63 57     83%     29.98        
Jul 16 14:15 W 8 10 Clear CLR 63 57     83%     29.98        
Jul 16 14:00 NW 10 9 Clear CLR 64 57     77%     29.98        
Jul 16 13:55 NW 9 9 Clear CLR 63 57     83%     29.98        
Jul 16 13:40 W 7 9 Clear CLR 61 57     88%     29.98        
Jul 16 13:35 W 6 9 Clear CLR 61 57     88%     29.98        
Jul 16 13:20 W 10 9 Clear CLR 61 57     88%     29.99        
Jul 16 13:15 W 9 10 Clear CLR 61 55     82%     29.99        
Jul 16 12:55 W 9 10 Mostly Clear FEW004 61 55     82%     29.99        
Jul 16 12:40 W 10 9 Clear CLR 61 57     88%     29.99        
Jul 16 12:35 WSW 8 10 Clear CLR 61 55     82%     29.98        
Jul 16 12:20 WSW 7 10 Clear CLR 63 55     77%     29.99        
Jul 16 12:15 W 8 10 Clear CLR 63 57     83%     29.99        
Jul 16 12:00 WSW 8 10 Clear CLR 59 57     94%     29.99        
Jul 16 11:55 WSW 8 10 Clear CLR 59 55     88%     29.99        
Jul 16 11:40 WSW 7 10 Partly Cloudy SCT012 61 57     88%     29.98        
Jul 16 11:35 W 7 10 Partly Cloudy SCT012 61 55     82%     29.98        
Jul 16 11:20 W 7 10 Mostly Cloudy BKN012 61 57     88%     29.98        
Jul 16 11:15 W 7 10 Mostly Cloudy BKN010 61 55     82%     29.98        
Jul 16 10:55 W 5 10 Mostly Cloudy FEW004 BKN010 59 55     88%     29.98        
Jul 16 10:40 WSW 5 7 Mostly Cloudy BKN006 57 55     94%     29.98        
Jul 16 10:35 WSW 6 5 Fog/Mist BKN006 57 55     94%     29.98        
Jul 16 10:20 W 7 10 Cloudy OVC006 59 57     94%     29.98        
Jul 16 10:15 WSW 5 10 Cloudy OVC006 59 57     94%     29.97        
Jul 16 10:00 WNW 5 8 Cloudy OVC004 57 55     94%     29.98        
Jul 16 09:55 WNW 5 5 Fog/Mist BKN003 BKN008 57 55     94%     29.98        
Jul 16 09:40 SW 6 10 Mostly Cloudy BKN006 59 57     94%     29.98        
Jul 16 09:35 W 5 10 Mostly Cloudy BKN006 57 55     94%     29.98        
Jul 16 09:15 W 6 10 Cloudy BKN006 OVC014 57 57     100%     29.98        
Jul 16 09:00 W 6 10 Mostly Cloudy FEW007 BKN014 57 57     100%     29.97        
Jul 16 08:55 WSW 6 10 Cloudy FEW006 OVC014 57 57     100%     29.97        
Jul 16 08:40 NW 3 10 Cloudy FEW004 SCT007 OVC014 57 57     100%     29.97        
Jul 16 08:35 WNW 5 10 Cloudy SCT004 BKN007 OVC014 57 55     94%     29.97        
Jul 16 08:20 Calm 9 Cloudy BKN003 OVC007 57 55     94%     29.96        
Jul 16 08:15 Calm 5 Fog/Mist BKN003 OVC007 57 55     94%     29.96        
Jul 16 08:00 S 3 2.5 Fog/Mist OVC003 57 55     94%     29.96        
Jul 16 07:55 SSE 3 2 Fog/Mist OVC003 57 55     94%     29.96        
Jul 16 07:35 SSW 3 1.25 Fog/Mist OVC003 57 55     94%     29.96        
Jul 16 07:20 S 3 3 Fog/Mist OVC004 57 55     94%     29.96        
Jul 16 07:15 Calm 4 Fog/Mist OVC004 57 55     94%     29.96        
Jul 16 07:00 Calm 7 Cloudy OVC004 57 55     94%     29.96        
Jul 16 06:55 Calm 9 Cloudy OVC004 55 55     100%     29.96        
Jul 16 06:40 Calm 9 Cloudy OVC005 55 55     100%     29.95        
Jul 16 06:35 Calm 8 Cloudy OVC005 55 55     100%     29.95        
Jul 16 06:20 Calm 9 Cloudy OVC005 55 55     100%     29.95        
Jul 16 06:15 Calm 9 Cloudy OVC005 55 55     100%     29.95        
Jul 16 05:55 Calm 9 Cloudy OVC003 55 55     100%     29.95        
Jul 16 05:40 Calm 3 Fog/Mist OVC003 55 55     100%     29.95        
Jul 16 05:35 Calm 3 Fog/Mist OVC003 55 55     100%     29.95        
Jul 16 05:20 Calm 1.5 Fog/Mist OVC004 55 55     100%     29.96        
Jul 16 05:15 Calm 2.5 Fog/Mist OVC004 55 55     100%     29.96        
Jul 16 05:00 Calm 4 Fog/Mist OVC004 55 55     100%     29.95        
Jul 16 04:55 Calm 3 Fog/Mist OVC004 55 55     100%     29.95        
Jul 16 04:40 Calm 8 Cloudy OVC005 55 55     100%     29.95        
Jul 16 04:35 Calm 8 Cloudy OVC004 55 55     100%     29.95        
Jul 16 04:15 Calm 2.5 Fog/Mist OVC003 55 55     100%     29.95        
Jul 16 04:00 Calm 1.75 Fog/Mist OVC003 55 55     100%     29.95        
Jul 16 03:55 NNW 3 1.5 Fog/Mist OVC003 55 55     100%     29.96        
Jul 16 03:40 NW 3 1.25 Fog/Mist OVC003 55 55     100%     29.96        
Jul 16 03:35 NW 3 1.25 Fog/Mist OVC003 55 55     100%     29.96        
Jul 16 03:20 NW 6 1.5 Fog/Mist OVC003 55 55     100%     29.97        
Jul 16 03:15 NNW 3 1.25 Fog/Mist OVC003 57 55     94%     29.97        
Jul 16 03:00 NNW 5 1.25 Fog/Mist OVC003 55 55     100%     29.97        
Jul 16 02:55 NNW 7 1.5 Fog/Mist OVC003 57 55     94%     29.97        
Jul 16 02:40 NW 8 1.5 Fog/Mist OVC003 57 55     94%     29.97        
Jul 16 02:35 NNW 7 1.25 Light Rain OVC003 57 55     94%     29.97        
Jul 16 02:15 NNW 8 1 Fog/Mist OVC003 57 55     94%     29.98        
Jul 16 02:00 NNW 11 1.25 Fog/Mist OVC002 57 57     100%     29.98        
Jul 16 01:55 NW 7 1 Fog/Mist OVC002 57 57     100%     29.98        
Jul 16 01:40 NNW 5 1 Fog/Mist OVC002 57 57     100%     29.98        
Jul 16 01:35 NNW 5 1 Fog/Mist OVC002 57 57     100%     29.98        
Jul 16 01:20 NNW 6 1 Fog/Mist OVC002 57 57     100%     29.99        
Jul 16 01:15 NW 7 1 Fog/Mist OVC002 57 57     100%     29.99        
Jul 16 01:00 NNW 7 1 Fog/Mist OVC002 57 57     100%     29.99        
Jul 16 00:55 NNW 6 1.25 Fog/Mist OVC002 57 57     100%     29.99        
Jul 16 00:40 NW 6 1.25 Fog/Mist OVC003 57 57     100%     30        
Jul 16 00:35 NNW 5 1.25 Fog/Mist OVC003 57 57     100%     30        
Notice The following observation data may not be complete
Jul 16 00:20 NNW 6 1.25 Fog/Mist OVC003          %     30        
Jul 16 00:15 NNW 6 1.25 Fog/Mist OVC003 57 57     100%     30        
Jul 15 23:55 NW 9 1.25 Fog/Mist OVC003 57 55     94%     30        
Jul 15 23:40 NNW 9 1.25 Fog/Mist OVC003 57 55     94%     30        
Jul 15 23:35 NNW 10 1.5 Fog/Mist OVC003 57 55     94%     30        
Jul 15 23:20 NNW 9 2.5 Fog/Mist OVC003 57 55     94%     30        
Jul 15 23:15 NW 9 2.5 Fog/Mist OVC003 57 55     94%     30.01        
Jul 15 23:00 NNW 6 2.5 Fog/Mist OVC003 57 57     100%     30.01        
Jul 15 22:55 NNW 9 3 Fog/Mist OVC004 57 57     100%     30.01        
Jul 15 22:40 NNW 9 4 Fog/Mist   57 57     100%     30.01        
Jul 15 22:35 NNW 8 5 Fog/Mist   59 57     94%     30.01        
Jul 15 22:15 NW 9 10 Clear   59 57     94%     30.01        
Jul 15 22:00 NW 8 10 Clear   59 57     94%     30.01        
Jul 15 21:55 NW 7 10 Clear   59 57     94%     30.01        
Jul 15 21:40 NW 6 10 Cloudy OVC006 59 57     94%     30.01        
Jul 15 21:35 NW 6 10 Cloudy OVC006 59 57     94%     30.01        
Jul 15 21:20 NNW 7 10 Cloudy OVC006 59 57     94%     30.01        
Jul 15 21:15 NW 6 10 Cloudy OVC006 59 57     94%     30.01        
Jul 15 21:00 NNW 7 10 Cloudy OVC006 59 57     94%     30.01        
Jul 15 20:55 NNW 6 10 Cloudy OVC006 59 57     94%     30.01        
Jul 15 20:35 NW 8 10 Cloudy OVC008 59 57     94%     30.01        
Jul 15 20:20 NNW 10 10 Cloudy OVC008 59 57     94%     30.01        
Jul 15 20:15 NNW 8 10 Cloudy OVC008 59 57     94%     30.01        
Jul 15 20:00 NNW 11 10 Cloudy OVC008 59 57     94%     30.01        
Jul 15 19:55 NNW 10 10 Cloudy OVC008 59 57     94%     30.01        
Jul 15 19:40 NNW 9 10 Cloudy OVC006 59 57     94%     30.02        
Jul 15 19:35 NNW 9 10 Cloudy OVC006 59 57     94%     30.02        
Jul 15 19:20 NNW 10 10 Cloudy OVC006 59 57     94%     30.02        
Jul 15 19:15 NNW 10 10 Cloudy OVC005 59 57     94%     30.02        
Jul 15 18:55 NW 10 10 Cloudy OVC007 59 57     94%     30.03        
Jul 15 18:40 NW 10 10 Mostly Cloudy BKN007 59 57     94%     30.02        
Jul 15 18:35 NW 10 10 Mostly Cloudy BKN007 61 57     88%     30.02        
Jul 15 18:20 NW 13 10 Mostly Cloudy BKN009 63 57     83%     30.02        
Jul 15 18:15 NW 14 10 Mostly Cloudy BKN009 63 57     83%     30.02        
Jul 15 18:00 NW 13 10 Mostly Cloudy BKN009 61 57     88%     30.02        
Jul 15 17:55 NW 14 10 Mostly Cloudy BKN009 63 57     83%     30.02        
Jul 15 17:40 NW 13 10 Mostly Cloudy BKN009 BKN013 63 57     83%     30.03        
Jul 15 17:35 NW 13 10 Mostly Cloudy BKN009 BKN013 63 57     83%     30.03        
Jul 15 17:15 NW 11 10 Mostly Cloudy BKN009 63 57     83%     30.04        
Jul 15 17:00 NW 14 10 Mostly Cloudy BKN009 BKN012 63 57     83%     30.04        
Jul 15 16:55 NW 11 10 Mostly Cloudy SCT009 BKN012 63 57     83%     30.04        
Jul 15 16:40 NW 13 10 Mostly Cloudy BKN009 63 57     83%     30.04        
Jul 15 16:35 NW 11 10 Mostly Cloudy BKN009 63 57     83%     30.04        
Jul 15 16:20 NW 13 10 Mostly Cloudy BKN009 63 57     83%     30.05        
Jul 15 16:15 NNW 13 10 Partly Cloudy SCT009 63 57     83%     30.05        
Jul 15 16:00 NW 14 10 Mostly Clear FEW013 63 57     83%     30.05        
Jul 15 15:55 NW 14 10 Mostly Clear FEW013 63 57     83%     30.05        
Jul 15 15:40 NW 13 10 Mostly Clear FEW013 63 57     83%     30.05        
Jul 15 15:35 NW 13 10 Mostly Clear FEW013 63 57     83%     30.06        
Jul 15 15:20 WNW 13 10 Mostly Clear FEW013 64 57     77%     30.06        
Jul 15 15:15 NW 11 10 Mostly Clear FEW013 64 57     77%     30.06        
Jul 15 14:55 N 10 10 Partly Cloudy SCT013 64 57     77%     30.07        
Jul 15 14:40 NW 11 10 Partly Cloudy SCT013 64 57     77%     30.07        
Jul 15 14:35 NW 10 10 Partly Cloudy SCT013 64 55     73%     30.07        
Jul 15 14:20 NW 11 10 Partly Cloudy SCT013 63 55     77%     30.08        
Jul 15 14:15 NW 13 10 Partly Cloudy SCT013 64 55     73%     30.08        
Jul 15 14:00 NW 14 9 Mostly Clear FEW013 64 55     73%     30.08        
Jul 15 13:55 NNW 13 9 Partly Cloudy SCT013 63 55     77%     30.08        
Jul 15 13:40 NNW 11 10 Mostly Clear FEW013 63 55     77%     30.08        
Jul 15 13:35 NNW 13 10 Clear CLR 63 55     77%     30.09        
Jul 15 13:20 NW 13 10 Clear CLR 63 55     77%     30.08        
Jul 15 13:15 NNW 10 10 Clear CLR 63 55     77%     30.08        
Jul 15 12:55 NW 11 10 Clear CLR 63 55     77%     30.08        
Jul 15 12:40 NNW 10 10 Clear CLR 64 54     68%     30.09        
Jul 15 12:35 NNW 14 10 Clear CLR 63 54     72%     30.08        
Jul 15 12:15 NNW 13 10 Clear CLR 63 54     72%     30.08        
Jul 15 12:00 NW 14 9 Clear CLR 63 54     72%     30.08        
Jul 15 11:55 NW 14 10 Clear CLR 63 54     72%     30.08        
Jul 15 11:40 NW 17 10 Clear CLR 63 54     72%     30.07        
Jul 15 11:35 NW 17 10 Clear CLR 63 54     72%     30.07        
Jul 15 11:20 NW 15 9 Clear CLR 63 54     72%     30.07        
Jul 15 11:15 NW 15 9 Clear CLR 63 54     72%     30.07        
Jul 15 11:00 NW 11 9 Clear CLR 63 52     68%     30.06        
Jul 15 10:55 NW 10 9 Clear CLR 63 54     72%     30.06        
Jul 15 10:40 NW 8 9 Clear CLR 63 54     72%     30.06        
Jul 15 10:35 WNW 9 9 Clear CLR 63 54     72%     30.06        
Jul 15 10:15 WNW 9 9 Clear CLR 63 52     68%     30.06        
Jul 15 10:00 NW 8 9 Clear CLR 63 52     68%     30.06        
Jul 15 09:55 NNW 8 10 Clear CLR 63 54     72%     30.06        
Jul 15 09:40 NNW 9 9 Clear CLR 63 52     68%     30.06        
Jul 15 09:35 NW 8 9 Clear CLR 63 52     68%     30.06        
Jul 15 09:20 NNW 11 9 Clear CLR 61 52     72%     30.05        
Jul 15 09:15 NNW 10 9 Clear CLR 61 52     72%     30.05        
Jul 15 09:00 NW 9 9 Clear CLR 61 52     72%     30.05        
Jul 15 08:55 NNW 8 9 Clear CLR 61 52     72%     30.05        
Jul 15 08:40 NNW 7 9 Clear CLR 59 52     77%     30.05        
Jul 15 08:35 NNW 7 9 Clear CLR 59 52     77%     30.05        
Jul 15 08:15 NNW 7 8 Clear CLR 59 52     77%     30.06        
Jul 15 08:00 NNW 8 8 Clear CLR 57 52     82%     30.05        
Jul 15 07:55 NNW 7 8 Clear CLR 57 52     82%     30.05        
Jul 15 07:40 NNW 6 8 Clear CLR 57 52     82%     30.05        
Jul 15 07:35 NNW 6 8 Clear CLR 57 52     82%     30.05        
Jul 15 07:20 NNW 3 7 Clear CLR 57 52     82%     30.05        
Jul 15 07:15 NNW 5 7 Clear CLR 55 52     88%     30.05        
Jul 15 07:00 Calm 6 Fog/Mist CLR 55 50     82%     30.04        
Jul 15 06:55 Calm 6 Fog/Mist CLR 54 50     88%     30.04        
Jul 15 06:35 Calm 6 Fog/Mist CLR 54 50     88%     30.04        
Jul 15 06:20 NNW 5 6 Fog/Mist CLR 54 50     88%     30.04        
Jul 15 06:15 NNW 5 6 Fog/Mist CLR 54 50     88%     30.04        
Jul 15 06:00 NW 3 7 Clear CLR 54 50     88%     30.04        
Jul 15 05:55 NW 3 8 Clear CLR 54 50     88%     30.04        
Jul 15 05:40 N 5 8 Clear CLR 55 50     82%     30.03        
Jul 15 05:35 NNW 6 8 Clear CLR 55 50     82%     30.03        
Jul 15 05:20 NNW 5 8 Clear CLR 55 50     82%     30.03        
Jul 15 05:15 NNW 5 8 Clear CLR 55 50     82%     30.03        
Jul 15 04:55 NNW 5 9 Clear CLR 55 50     82%     30.03        
Jul 15 04:40 Calm 8 Clear CLR 55 52     88%     30.03        
Jul 15 04:35 N 5 8 Clear CLR 55 52     88%     30.03        
Jul 15 04:20 N 3 8 Clear CLR 55 52     88%     30.03        
Jul 15 04:15 NNW 5 8 Clear CLR 55 52     88%     30.02        
Jul 15 04:00 N 3 8 Clear CLR 55 52     88%     30.03        
Jul 15 03:55 NNW 5 8 Clear CLR 55 52     88%     30.03        
Jul 15 03:40 NNW 7 9 Clear CLR 55 52     88%     30.03        
Jul 15 03:35 N 7 10 Clear CLR 55 52     88%     30.03        
Jul 15 03:15 NNW 7 10 Clear CLR 57 52     82%     30.03        
Jul 15 03:00 NNW 8 10 Clear CLR 57 52     82%     30.03        
Jul 15 02:55 NNW 8 10 Clear CLR 57 52     82%     30.03        
Jul 15 02:40 NNW 9 10 Clear CLR 57 52     82%     30.03        
Jul 15 02:35 N 11 10 Clear CLR 57 52     82%     30.03        
Jul 15 02:20 W 3 10 Clear CLR 57 50     77%     30.03        
Jul 15 02:15 W 3 9 Clear CLR 57 52     82%     30.03        
Jul 15 02:00 W 3 8 Clear CLR 55 52     88%     30.04        
Jul 15 01:55 WNW 5 8 Clear CLR 55 52     88%     30.04        
Jul 15 01:35 Calm 8 Clear CLR 54 50     88%     30.04        
Jul 15 01:20 S 3 8 Clear CLR 54 50     88%     30.04        
Jul 15 01:15 Calm 8 Clear CLR 54 50     88%     30.04        
Jul 15 01:00 Calm 9 Clear CLR 54 50     88%     30.04        
Jul 15 00:55 Calm 8 Clear CLR 55 50     82%     30.04        
Jul 15 00:40 Calm 8 Clear CLR 55 50     82%     30.05        
Jul 15 00:35 S 5 9 Clear CLR 55 50     82%     30.05        
Jul 15 00:20 Calm 9 Clear CLR 54 50     88%     30.05        
Jul 15 00:15 S 3 8 Clear CLR 54 50     88%     30.05        
Jul 15 00:00 Calm 8 Clear CLR 54 50     88%     30.05        
Jul 14 23:55 Calm 8 Clear CLR 54 50     88%     30.05        
Jul 14 23:40 Calm 8 Clear CLR 52 50     94%     30.05        
Jul 14 23:35 Calm 8 Clear CLR 54 50     88%     30.05        
Jul 14 23:15 Calm 7 Clear CLR 54 50     88%     30.05        
Jul 14 23:00 Calm 7 Clear CLR 55 52     88%     30.05        
Jul 14 22:55 Calm 7 Clear CLR 54 50     88%     30.05        
Jul 14 22:40 SE 3 7 Clear CLR 55 52     88%     30.05        
Jul 14 22:35 SE 5 7 Clear CLR 55 52     88%     30.05        
Jul 14 22:20 S 5 7 Clear CLR 55 52     88%     30.05        
Jul 14 22:15 S 6 8 Clear CLR 55 52     88%     30.05        
Jul 14 22:00 Calm 9 Clear CLR 57 52     82%     30.05        
Jul 14 21:55 Calm 10 Clear CLR 57 52     82%     30.05        
Jul 14 21:40 NW 8 9 Clear CLR 57 52     82%     30.05        
Jul 14 21:35 NW 8 9 Clear CLR 57 52     82%     30.04        
Jul 14 21:15 NW 9 10 Clear CLR 57 52     82%     30.04        
Jul 14 21:00 NW 11 8 Clear CLR 59 52     77%     30.03        
Jul 14 20:55 NW 11 8 Clear CLR 59 52     77%     30.03        
Jul 14 20:40 NW 15 8 Clear CLR 59 54     82%     30.03        
Jul 14 20:35 NW 14 8 Clear CLR 59 54     82%     30.03        
Jul 14 20:20 NW 11 7 Clear CLR 57 54     88%     30.03        
Jul 14 20:15 NW 13 7 Clear CLR 57 54     88%     30.03        
Jul 14 20:00 NW 13 7 Clear CLR 57 54     88%     30.03        
Jul 14 19:55 NW 14 8 Clear CLR 59 54     82%     30.03        
Jul 14 19:35 NW 14 8 Clear CLR 59 54     82%     30.03        
Jul 14 19:20 NW 14 8 Clear CLR 59 54     82%     30.04        
Jul 14 19:15 NW 13 8 Clear CLR 59 54     82%     30.04        
Jul 14 19:00 NW 10 8 Clear CLR 59 54     82%     30.04        
Jul 14 18:55 NW 9 9 Clear CLR 59 54     82%     30.04        
Jul 14 18:40 NW 10 7 Clear CLR 59 54     82%     30.04        
Jul 14 18:35 NW 11 8 Clear CLR 59 54     82%     30.04        
Jul 14 18:20 NW 9 8 Clear CLR 57 54     88%     30.04        
Jul 14 18:15 NW 9 8 Clear CLR 57 54     88%     30.05        
Jul 14 17:55 WNW 9 8 Mostly Cloudy BKN008 57 55     94%     30.05        
Jul 14 17:40 NW 8 8 Cloudy OVC008 59 55     88%     30.05        
Jul 14 17:35 NW 8 8 Cloudy OVC008 59 55     88%     30.06        
Jul 14 17:20 NW 7 8 Cloudy OVC008 59 54     82%     30.06        
Jul 14 17:15 NW 10 8 Cloudy OVC008 59 55     88%     30.06        
Jul 14 17:00 NW 9 9 Cloudy OVC008 59 55     88%     30.06        
Jul 14 16:55 NW 8 9 Cloudy OVC008 59 55     88%     30.06        
Jul 14 16:40 NW 9 9 Cloudy OVC008 59 55     88%     30.06        
Jul 14 16:35 NW 9 9 Cloudy OVC008 59 55     88%     30.06        
Jul 14 16:15 NW 8 9 Cloudy OVC008 57 54     88%     30.07        
Jul 14 16:00 WNW 9 8 Cloudy OVC008 57 54     88%     30.07        
Jul 14 15:55 NW 8 8 Cloudy OVC008 57 54     88%     30.07        
Jul 14 15:40 WNW 8 9 Mostly Cloudy BKN008 57 54     88%     30.07        
Jul 14 15:35 NW 7 9 Mostly Cloudy BKN008 57 54     88%     30.07        
Jul 14 15:20 NW 8 8 Mostly Cloudy BKN006 59 55     88%     30.07        
Jul 14 15:15 WNW 7 7 Mostly Cloudy BKN006 59 54     82%     30.07        
Jul 14 15:00 WNW 7 8 Cloudy OVC006 59 55     88%     30.08        
Jul 14 14:55 WNW 7 7 Cloudy OVC006 59 55     88%     30.08        
Jul 14 14:35 NW 8 9 Mostly Cloudy BKN006 59 55     88%     30.08        
Jul 14 14:20 NW 9 9 Mostly Cloudy BKN006 59 55     88%     30.09        
Jul 14 14:15 NW 9 9 Mostly Cloudy BKN006 59 55     88%     30.09        
Jul 14 14:00 WNW 8 7 Mostly Cloudy BKN006 59 55     88%     30.09        
Jul 14 13:55 NW 8 9 Mostly Cloudy BKN006 59 55     88%     30.09        
Jul 14 13:40 NW 7 8 Mostly Cloudy BKN006 59 55     88%     30.09        
Jul 14 13:35 NW 8 7 Mostly Cloudy BKN006 59 55     88%     30.09        
Jul 14 13:20 NNW 8 6 Fog/Mist BKN006 57 55     94%     30.09        
Jul 14 13:15 NW 7 5 Fog/Mist BKN006 57 54     88%     30.09        
Jul 14 13:00 NNW 8 9 Cloudy OVC006 57 55     94%     30.09        
Jul 14 12:55 NW 6 8 Mostly Cloudy BKN006 57 54     88%     30.09        
Jul 14 12:35 WNW 7 6 Fog/Mist BKN006 57 55     94%     30.09        
Jul 14 12:20 NNW 7 5 Fog/Mist BKN006 57 54     88%     30.09        
Jul 14 12:15 NW 7 8 Mostly Cloudy BKN006 57 55     94%     30.09        
Jul 14 12:00 NW 7 5 Fog/Mist OVC006 57 55     94%     30.09        
Jul 14 11:55 NW 7 5 Fog/Mist OVC006 57 55     94%     30.08        
Jul 14 11:40 NW 6 7 Cloudy OVC006 57 55     94%     30.08        
Jul 14 11:35 NW 5 7 Mostly Cloudy BKN006 57 55     94%     30.08        
Jul 14 11:20 NW 7 2.5 Fog/Mist OVC004 55 55     100%     30.08        
Jul 14 11:15 NW 7 1.5 Fog/Mist OVC004 55 54     94%     30.08        
Jul 14 11:00 WNW 6 2.5 Fog/Mist OVC005 55 54     94%     30.08        
Jul 14 10:55 NW 6 2.5 Fog/Mist OVC005 55 54     94%     30.08        
Jul 14 10:35 NW 3 2.5 Fog/Mist OVC005 55 54     94%     30.07        
Jul 14 10:20 WNW 3 3 Fog/Mist OVC005 55 54     94%     30.07        
Jul 14 10:15 W 6 3 Fog/Mist OVC005 55 54     94%     30.07        
Jul 14 10:00 NW 5 7 Cloudy OVC006 55 54     94%     30.07        
Jul 14 09:55 NW 5 7 Cloudy OVC005 55 54     94%     30.07        
Jul 14 09:40 NW 6 3 Fog/Mist OVC005 55 54     94%     30.06        
Jul 14 09:35 WNW 6 3 Fog/Mist OVC004 55 54     94%     30.06        
Jul 14 09:20 WNW 6 7 Cloudy OVC004 55 54     94%     30.06        
Jul 14 09:15 WNW 6 5 Fog/Mist OVC004 55 54     94%     30.06        
Jul 14 09:00 NW 3 3 Fog/Mist OVC004 55 54     94%     30.05        
Jul 14 08:55 NW 3 2 Fog/Mist OVC003 55 54     94%     30.05        
Jul 14 08:40 NW 6 2 Fog/Mist OVC004 55 54     94%     30.04        
Jul 14 08:35 WNW 6 3 Fog/Mist OVC003 55 55     100%     30.04        
Jul 14 08:15 Calm 1.5 Fog/Mist OVC003 55 54     94%     30.04        
Jul 14 08:00 Calm 1.75 Fog/Mist OVC003 54 54     100%     30.03        
Jul 14 07:55 Calm 1.5 Fog/Mist OVC003 54 54     100%     30.03        
Jul 14 07:40 Calm 1.5 Fog/Mist OVC004 54 54     100%     30.02        
Jul 14 07:35 SSE 3 1.25 Fog/Mist OVC003 54 54     100%     30.02        
Jul 14 07:20 S 3 0.75 Fog/Mist OVC003 54 54     100%     30.02        
Jul 14 07:15 SSE 5 0.75 Fog/Mist OVC003 54 54     100%     30.02        
Jul 14 07:00 SSE 5 0.75 Fog/Mist OVC003 54 54     100%     30.02        
Jul 14 06:55 SSE 5 0.75 Fog/Mist OVC003 54 54     100%     30.02        
Jul 14 06:35 Calm 0.75 Fog/Mist OVC003 54 54     100%     30.01        
Jul 14 06:20 SE 3 0.75 Fog/Mist OVC003 54 54     100%     30.01        
Jul 14 06:15 SE 3 1 Fog/Mist OVC003 54 54     100%     30.01        
Jul 14 06:00 ESE 3 2 Fog/Mist OVC004 54 54     100%     30        
Jul 14 05:55 Calm 2.5 Fog/Mist OVC004 54 54     100%     30        
Jul 14 05:40 Calm 7 Cloudy OVC004 54 54     100%     30        
Jul 14 05:35 Calm 6 Fog/Mist OVC004 54 54     100%     30        
Jul 14 05:20 Calm 3 Fog/Mist OVC003 54 54     100%     29.99        
Jul 14 05:15 Calm 3 Fog/Mist OVC003 54 54     100%     29.99        
Jul 14 04:55 N 3 4 Fog/Mist OVC003 54 52     94%     29.98        
Jul 14 04:40 Calm 3 Fog/Mist OVC003 54 52     94%     29.98        
Jul 14 04:35 Calm 3 Fog/Mist OVC003 54 52     94%     29.98        
Jul 14 04:20 Calm 5 Fog/Mist OVC004 54 52     94%     29.97        
Jul 14 04:15 Calm 5 Fog/Mist OVC004 54 52     94%     29.97        
Jul 14 04:00 Calm 7 Cloudy OVC004 54 52     94%     29.97        
Jul 14 03:55 NNE 3 7 Cloudy OVC003 54 52     94%     29.97        
Jul 14 03:40 NNW 5 2.5 Fog/Mist OVC003 54 52     94%     29.97        
Jul 14 03:35 N 3 3 Fog/Mist OVC003 54 52     94%     29.97        
Jul 14 03:20 NNW 3 1.75 Fog/Mist OVC003 54 52     94%     29.97        
Jul 14 03:15 N 3 1.75 Fog/Mist OVC003 54 52     94%     29.97        
Jul 14 03:00 NNW 6 2.5 Fog/Mist OVC003 54 52     94%     29.97        
Jul 14 02:55 NW 6 1.75 Fog/Mist OVC003 54 52     94%     29.97        
Jul 14 02:35 NW 7 3 Fog/Mist OVC003 54 54     100%     29.97        
Jul 14 02:20 NW 7 2.5 Fog/Mist OVC003 54 54     100%     29.97        
Jul 14 02:15 NW 6 3 Fog/Mist OVC004 54 54     100%     29.97        
Jul 14 02:00 N 6 5 Fog/Mist OVC004 54 54     100%     29.96        
Jul 14 01:55 N 7 4 Fog/Mist OVC004 54 54     100%     29.96        
Jul 14 01:40 NNW 6 5 Fog/Mist OVC004 55 54     94%     29.96        
Jul 14 01:35 NNW 7 5 Fog/Mist OVC004 55 54     94%     29.96        
Jul 14 01:20 N 8 5 Fog/Mist OVC004 55 54     94%     29.96        
Jul 14 01:15 NNW 7 5 Fog/Mist OVC005 55 54     94%     29.96        
Jul 14 01:00 N 6 6 Fog/Mist OVC006 55 54     94%     29.96        
Jul 14 00:55 NNW 6 6 Fog/Mist OVC006 55 54     94%     29.96        
Jul 14 00:35 NNW 7 5 Fog/Mist OVC008 55 54     94%     29.97        
Jul 14 00:20 NNW 3 7 Cloudy OVC008 55 54     94%     29.97        
Jul 14 00:15 Calm 6 Fog/Mist OVC008 55 54     94%     29.96        
Jul 14 00:00 Calm 7 Cloudy OVC008 54 52     94%     29.96        
Jul 13 23:55 Calm 7 Cloudy OVC008 54 52     94%     29.96        
Jul 13 23:40 Calm 7 Cloudy OVC010 54 52     94%     29.96        
Jul 13 23:35 Calm 7 Cloudy OVC010 54 52     94%     29.96        
Jul 13 23:20 Calm 6 Fog/Mist OVC010 54 52     94%     29.96        
Jul 13 23:15 Calm 6 Fog/Mist OVC010 54 52     94%     29.96        
Jul 13 23:00 Calm 6 Fog/Mist OVC010 55 54     94%     29.96        
Jul 13 22:55 Calm 6 Fog/Mist OVC010 55 52     88%     29.96        
Jul 13 22:40 Calm 5 Fog/Mist OVC010 54 52     94%     29.96        
Jul 13 22:35 Calm 5 Fog/Mist OVC010 55 54     94%     29.96        
Jul 13 22:15 NNW 5 6 Fog/Mist BKN010 54 52     94%     29.96        
Jul 13 22:00 NW 3 6 Fog/Mist BKN010 54 50     88%     29.95        
Jul 13 21:55 Calm 6 Fog/Mist BKN010 54 50     88%     29.95        
Jul 13 21:40 Calm 5 Fog/Mist SCT010 54 52     94%     29.95        
Jul 13 21:35 Calm 5 Fog/Mist SCT010 54 52     94%     29.95        
Jul 13 21:20 Calm 5 Fog/Mist BKN010 54 52     94%     29.94        
Jul 13 21:15 Calm 5 Fog/Mist BKN010 54 52     94%     29.94        
Jul 13 21:00 Calm 5 Fog/Mist OVC010 55 54     94%     29.94        
Jul 13 20:55 Calm 4 Fog/Mist OVC010 55 54     94%     29.93        
Jul 13 20:40 Calm 4 Fog/Mist BKN010 55 54     94%     29.93        
Jul 13 20:35 Calm 4 Fog/Mist BKN010 55 54     94%     29.93        
Jul 13 20:20 W 3 4 Fog/Mist SCT010 55 54     94%     29.93        
Jul 13 20:15 W 3 4 Fog/Mist BKN010 55 54     94%     29.93        
Jul 13 20:00 WNW 3 4 Fog/Mist BKN010 57 54     88%     29.93        
Jul 13 19:55 WNW 5 5 Fog/Mist BKN008 57 54     88%     29.93        
Jul 13 19:35 NW 8 5 Fog/Mist OVC008 57 54     88%     29.93        
Jul 13 19:20 NNW 7 5 Fog/Mist OVC008 57 54     88%     29.93        
Jul 13 19:15 NNW 6 5 Fog/Mist OVC008 57 54     88%     29.93        
Jul 13 19:00 NNW 6 5 Fog/Mist OVC006 57 54     88%     29.93        
Jul 13 18:55 NNW 6 6 Fog/Mist OVC006 57 54     88%     29.93        
Jul 13 18:40 NW 5 5 Fog/Mist OVC006 57 54     88%     29.93        
Jul 13 18:35 NW 7 5 Fog/Mist OVC005 57 54     88%     29.93        
Jul 13 18:20 N 6 5 Fog/Mist OVC005 55 54     94%     29.94        
Jul 13 18:15 NNW 7 5 Fog/Mist OVC005 55 54     94%     29.94        
Jul 13 18:00 NW 7 5 Fog/Mist OVC004 57 54     88%     29.94        
Jul 13 17:55 NNW 8 5 Fog/Mist OVC004 57 54     88%     29.94        
Jul 13 17:40 NNW 9 5 Fog/Mist OVC004 57 54     88%     29.94        
Jul 13 17:35 NW 9 5 Fog/Mist OVC004 57 54     88%     29.94        
Jul 13 17:20 NNW 10 5 Fog/Mist OVC004 57 54     88%     29.95        
Jul 13 17:15 NNW 10 5 Fog/Mist OVC004 57 54     88%     29.95        
Jul 13 16:55 NNW 9 5 Fog/Mist OVC004 57 54     88%     29.95        
Jul 13 16:40 NNW 11 6 Fog/Mist OVC004 57 54     88%     29.95        
Jul 13 16:35 NNW 11 5 Fog/Mist OVC004 57 54     88%     29.95        
Jul 13 16:20 NW 11 6 Fog/Mist OVC004 57 54     88%     29.95        
Jul 13 16:15 NW 14 6 Fog/Mist OVC004 57 55     94%     29.95        
Jul 13 16:00 NNW 14 5 Fog/Mist OVC004 57 54     88%     29.95        
Jul 13 15:55 NNW 11 5 Fog/Mist OVC004 57 54     88%     29.95        
Jul 13 15:40 NW 11 5 Fog/Mist OVC004 57 54     88%     29.96        
Jul 13 15:35 NNW 11 5 Fog/Mist OVC004 57 54     88%     29.96        
Jul 13 15:20 NNW 11 5 Fog/Mist OVC004 57 54     88%     29.96        
Jul 13 15:15 NNW 11 6 Fog/Mist OVC005 57 55     94%     29.96        
Jul 13 15:00 NW 10 6 Fog/Mist OVC005 57 54     88%     29.96        
Jul 13 14:55 NW 13 7 Cloudy OVC005 57 54     88%     29.96        
Jul 13 14:35 NNW 9 6 Fog/Mist OVC004 57 54     88%     29.97        
Jul 13 14:20 NNW 10 6 Fog/Mist OVC005 57 55     94%     29.97        
Jul 13 14:15 NNW 9 5 Fog/Mist OVC005 57 54     88%     29.97        
Jul 13 14:00 NW 9 4 Fog/Mist OVC005 57 55     94%     29.97        
Jul 13 13:55 NW 8 5 Fog/Mist OVC005 57 54     88%     29.97        
Jul 13 13:40 NW 10 5 Fog/Mist BKN005 57 54     88%     29.97        
Jul 13 13:35 NW 10 5 Fog/Mist BKN005 57 54     88%     29.97        
Jul 13 13:20 NW 8 6 Fog/Mist BKN006 57 54     88%     29.97        
Jul 13 13:15 NW 9 6 Fog/Mist BKN006 57 55     94%     29.97        
Jul 13 12:55 NW 8 6 Fog/Mist BKN006 57 54     88%     29.98        
Jul 13 12:40 NW 6 9 Mostly Cloudy BKN006 57 54     88%     29.97        
Jul 13 12:35 NW 8 9 Mostly Cloudy BKN006 57 54     88%     29.97        
Jul 13 12:20 WNW 8 8 Cloudy OVC006 57 54     88%     29.97        
Jul 13 12:15 WNW 8 5 Fog/Mist OVC006 57 54     88%     29.97        
Jul 13 12:00 NW 7 9 Cloudy OVC006 57 54     88%     29.97        
Jul 13 11:55 NW 6 10 Cloudy OVC006 57 54     88%     29.97        
Jul 13 11:40 WNW 6 5 Fog/Mist OVC004 57 54     88%     29.97        
Jul 13 11:35 NW 6 4 Fog/Mist OVC004 55 54     94%     29.97        
Jul 13 11:20 WNW 7 8 Cloudy OVC005 57 54     88%     29.97        
Jul 13 11:15 NNW 6 7 Cloudy OVC005 57 55     94%     29.97        
Jul 13 11:00 NNW 3 8 Cloudy OVC005 55 54     94%     29.97        
Jul 13 10:55 Calm 8 Cloudy OVC005 55 54     94%     29.97        
Jul 13 10:35 NW 6 3 Fog/Mist OVC005 55 54     94%     29.97        
Jul 13 10:20 WNW 3 4 Fog/Mist OVC005 55 54     94%     29.97        
Jul 13 10:15 WNW 6 3 Fog/Mist OVC004 55 54     94%     29.97        
Jul 13 10:00 Calm 3 Fog/Mist OVC005 55 54     94%     29.97        
Jul 13 09:55 W 5 3 Fog/Mist OVC005 55 54     94%     29.97        
Jul 13 09:40 NW 5 4 Fog/Mist OVC004 55 54     94%     29.96        
Jul 13 09:35 NW 3 3 Fog/Mist OVC004 55 54     94%     29.96        
Jul 13 09:20 WNW 5 2.5 Fog/Mist OVC004 55 54     94%     29.96        
Jul 13 09:15 WNW 6 1.75 Fog/Mist OVC004 54 54     100%     29.96        
Jul 13 09:00 WNW 5 1.75 Fog/Mist OVC004 54 54     100%     29.96        
Jul 13 08:55 NW 3 2 Fog/Mist OVC004 54 54     100%     29.96        
Jul 13 08:40 WNW 5 1.25 Fog/Mist OVC003 54 54     100%     29.96        
Jul 13 08:35 Calm 1.25 Fog/Mist OVC003 54 54     100%     29.96        
Jul 13 08:20 Calm 1.25 Fog/Mist OVC004 54 54     100%     29.95        
Jul 13 08:15 NW 3 1.75 Fog/Mist OVC004 54 54     100%     29.95        
Jul 13 07:55 NW 3 1.5 Fog/Mist OVC003 54 54     100%     29.95        
Jul 13 07:40 Calm 1.5 Fog/Mist OVC003 54 54     100%     29.95        
Jul 13 07:35 NNW 3 2 Fog/Mist OVC004 54 54     100%     29.95        
Jul 13 07:20 NW 5 1.25 Fog/Mist OVC004 54 54     100%     29.94        
Jul 13 07:15 NW 3 2 Fog/Mist OVC004 54 54     100%     29.94        
Jul 13 07:00 NNW 5 3 Fog/Mist OVC003 54 54     100%     29.93        
Jul 13 06:55 NNW 6 2 Fog/Mist OVC003 54 54     100%     29.93        
Jul 13 06:40 NNW 6 1.25 Fog/Mist OVC003 54 54     100%     29.93        
Jul 13 06:35 NNW 5 1.25 Fog/Mist OVC003 54 54     100%     29.93        
Jul 13 06:15 NNW 5 1.75 Fog/Mist OVC003 54 54     100%     29.93        
Jul 13 06:00 NW 6 2.5 Fog/Mist OVC003 54 54     100%     29.93        
Jul 13 05:55 NNW 6 1.75 Fog/Mist OVC003 54 54     100%     29.92        
Jul 13 05:40 N 6 2 Fog/Mist OVC003 54 54     100%     29.92        
Jul 13 05:35 N 5 2.5 Fog/Mist OVC004 54 54     100%     29.92        
Jul 13 05:20 NNW 6 3 Fog/Mist OVC004 54 54     100%     29.92        
Jul 13 05:15 NNW 8 4 Fog/Mist OVC004 54 54     100%     29.92        
Jul 13 05:00 NNW 9 2.5 Fog/Mist OVC003 54 54     100%     29.92        
Jul 13 04:55 NW 7 2.5 Fog/Mist OVC003 54 54     100%     29.91        
Jul 13 04:35 NNW 8 2.5 Fog/Mist OVC003 54 54     100%     29.91        
Jul 13 04:20 NW 6 1 Fog/Mist OVC003 54 54     100%     29.91        
Jul 13 04:15 NW 3 1.25 Fog/Mist OVC003 54 54     100%     29.91        
Jul 13 04:00 Calm 2 Fog/Mist OVC003 54 54     100%     29.91        
Jul 13 03:40 NNW 5 1.5 Fog/Mist OVC003 54 54     100%     29.91        
Jul 13 03:35 NNW 5 1.5 Fog/Mist OVC003 54 54     100%     29.91        
Jul 13 03:20 NNW 8 2 Fog/Mist OVC003 54 54     100%     29.91        
Jul 13 03:15 NNW 8 2 Fog/Mist OVC003 54 54     100%     29.91        
Jul 13 03:00 NNW 9 2 Fog/Mist OVC003 54 54     100%     29.92        
Jul 13 02:55 NW 7 2 Fog/Mist OVC003 54 54     100%     29.92        
Jul 13 02:40 NNW 7 1.75 Fog/Mist OVC003 54 54     100%     29.92        
Jul 13 02:35 NNW 9 1.75 Fog/Mist OVC003 54 54     100%     29.92        
Jul 13 02:15 NNW 9 1.75 Fog/Mist OVC003 54 54     100%     29.92        
Jul 13 01:40 NNW 8 1.75 Fog/Mist OVC003 54 54     100%     29.93        
Jul 13 01:35 NNW 9 1.75 Fog/Mist OVC003 54 54     100%     29.93        
Jul 13 01:20 NNW 8 2 Fog/Mist OVC003 54 54     100%     29.93        
Jul 13 01:00 NNW 7 1.75 Fog/Mist OVC003 54 54     100%     29.93        
Jul 13 00:55 NNW 8 1.75 Fog/Mist OVC003 54 54     100%     29.93        
Jul 13 00:40 NNW 9 2 Fog/Mist OVC003 54 54     100%     29.94        
Jul 13 00:35 N 9 2.5 Fog/Mist OVC003 54 54     100%     29.94        
Jul 13 00:20 NNW 9 1.75 Fog/Mist OVC003 54 54     100%     29.94        
Jul 13 00:15 NW 8 1.75 Fog/Mist OVC003 54 54     100%     29.94        
Jul 13 00:00 NNW 9 1.75 Fog/Mist OVC003 54 54     100%     29.94        
Jul 12 23:55 NNW 9 1.75 Fog/Mist OVC003 54 54     100%     29.94        
Jul 12 23:35 NW 10 2 Fog/Mist   55 54     94%     29.94        
Jul 12 23:15 NW 10 2 Fog/Mist OVC003 55 54     94%     29.94        
Jul 12 23:00 NW 10 3 Fog/Mist OVC004 55 54     94%     29.94        
Jul 12 22:55 NNW 11 3 Fog/Mist OVC004 55 54     94%     29.94        
Jul 12 22:40 NNW 8 3 Fog/Mist OVC004 55 54     94%     29.94        
Jul 12 22:35 NNW 9 3 Fog/Mist OVC004 55 54     94%     29.94        
Jul 12 22:20 NNW 10 3 Fog/Mist OVC004 55 54     94%     29.94        
Jul 12 22:15 NNW 9 3 Fog/Mist OVC004 55 54     94%     29.94        
Jul 12 22:00 NNW 8 3 Fog/Mist OVC004 55 54     94%     29.94        
Jul 12 21:55 NNW 8 4 Fog/Mist OVC004 55 54     94%     29.94        
Jul 12 21:40 NNW 7 3 Fog/Mist OVC004 55 54     94%     29.94        
Jul 12 21:35 NNW 8 3 Fog/Mist OVC004 55 54     94%     29.94        
Jul 12 21:15 NW 8 3 Fog/Mist OVC004 55 54     94%     29.94        
Jul 12 21:00 NW 8 2.5 Fog/Mist OVC004 55 54     94%     29.93        
Jul 12 20:55 NNW 7 3 Fog/Mist OVC004 55 54     94%     29.93        
Jul 12 20:40 NNW 8 2.5 Fog/Mist OVC004 55 54     94%     29.93        
Jul 12 20:35 NNW 9 2.5 Fog/Mist OVC004 55 54     94%     29.93        
Jul 12 20:20 NNW 9 5 Fog/Mist OVC005 55 54     94%     29.93        
Jul 12 20:15 NW 11 5 Fog/Mist OVC005 55 54     94%     29.93        
Jul 12 20:00 NW 8 5 Fog/Mist OVC005 55 54     94%     29.93        
Jul 12 19:55 NNW 9 5 Fog/Mist OVC005 55 54     94%     29.93        
Jul 12 19:35 NNW 9 5 Fog/Mist OVC005 57 54     88%     29.93        
Jul 12 19:15 NNW 9 6 Fog/Mist OVC005 57 54     88%     29.93        
Jul 12 19:00 NW 9 7 Cloudy OVC005 57 54     88%     29.93        
Jul 12 18:55 NNW 9 7 Cloudy OVC005 57 54     88%     29.93        
Jul 12 18:40 NNW 10 7 Cloudy OVC005 57 55     94%     29.93        
Jul 12 18:35 NNW 10 7 Cloudy OVC005 57 54     88%     29.93        
Jul 12 18:20 NNW 13 7 Cloudy OVC005 57 54     88%     29.94        
Jul 12 18:15 NNW 14 7 Cloudy OVC005 57 54     88%     29.94        
Jul 12 18:00 NNW 10 7 Cloudy OVC005 57 54     88%     29.94        
Jul 12 17:55 NW 13 8 Cloudy OVC005 57 54     88%     29.94        
Jul 12 17:40 NNW 13 8 Cloudy OVC005 57 55     94%     29.94        
Jul 12 17:35 NW 13 8 Cloudy OVC005 57 55     94%     29.95        
Jul 12 17:15 NNW 13 8 Cloudy OVC005 57 55     94%     29.95        
Jul 12 17:00 NW 14 8 Cloudy OVC005 57 55     94%     29.95        
Jul 12 16:55 NW 15 7 Cloudy OVC005 59 55     88%     29.95        
Jul 12 16:40 NNW 15 7 Cloudy OVC005 57 55     94%     29.95        
Jul 12 16:35 NW 15 8 Cloudy OVC005 59 55     88%     29.95        
Jul 12 16:20 NNW 14 7 Cloudy OVC005 59 55     88%     29.96        
Jul 12 16:15 NNW 13 7 Cloudy OVC005 59 55     88%     29.96        
Jul 12 16:00 NNW 15 7 Cloudy OVC005 57 55     94%     29.96        
Jul 12 15:55 NNW 14 7 Cloudy OVC006 59 55     88%     29.97        
Jul 12 15:40 N 14 7 Cloudy OVC006 59 55     88%     29.97        
Jul 12 15:35 NNW 11 7 Cloudy OVC005 59 55     88%     29.97        
Jul 12 15:15 NNW 11 8 Mostly Cloudy BKN005 59 55     88%     29.98        
Jul 12 15:00 NNW 13 7 Mostly Cloudy BKN005 57 54     88%     29.98        
Jul 12 14:55 NW 14 8 Mostly Cloudy BKN006 59 55     88%     29.98        
Jul 12 14:40 NNW 14 10 Mostly Cloudy BKN005 59 55     88%     29.98        
Jul 12 14:35 NW 9 10 Mostly Cloudy BKN006 59 55     88%     29.98        
Jul 12 14:20 NW 11 10 Mostly Cloudy BKN005 59 55     88%     29.98        
Jul 12 14:15 NNW 13 10 Mostly Cloudy BKN005 59 55     88%     29.98        
Jul 12 14:00 NNW 8 7 Mostly Cloudy BKN005 57 54     88%     29.99        
Jul 12 13:55 NW 10 6 Fog/Mist BKN005 57 55     94%     29.99        
Jul 12 13:35 NW 9 9 Mostly Cloudy BKN006 57 55     94%     30        
Jul 12 13:20 NW 9 9 Mostly Cloudy BKN005 57 54     88%     30        
Jul 12 13:15 NW 10 7 Mostly Cloudy BKN005 57 54     88%     30        
Jul 12 13:00 NW 10 5 Fog/Mist BKN005 57 54     88%     29.99        
Jul 12 12:55 NW 9 5 Fog/Mist BKN005 57 54     88%     29.99        
Jul 12 12:40 WNW 8 5 Fog/Mist BKN006 57 54     88%     30        
Jul 12 12:35 NNW 8 7 Mostly Cloudy BKN006 57 54     88%     30        
Jul 12 12:20 NW 8 5 Fog/Mist BKN005 57 54     88%     30        
Jul 12 12:15 N 7 7 Mostly Cloudy BKN005 57 54     88%     30        
Jul 12 11:55 NW 7 4 Fog/Mist BKN005 57 54     88%     30.01        
Jul 12 11:40 NW 9 2.5 Fog/Mist BKN005 57 55     94%     30.01        
Jul 12 11:35 NNW 8 2 Fog/Mist OVC005 57 55     94%     30.01        
Jul 12 11:20 NW 8 5 Fog/Mist BKN005 57 54     88%     30.01        
Jul 12 11:15 WNW 8 3 Fog/Mist OVC004 57 54     88%     30.01        
Jul 12 11:00 WNW 6 5 Fog/Mist OVC004 57 55     94%     30        
Jul 12 10:55 NNW 6 2.5 Fog/Mist BKN004 BKN008 55 54     94%     30        
Jul 12 10:40 NW 7 2 Fog/Mist OVC005 55 55     100%     30        
Jul 12 10:35 NNW 6 4 Fog/Mist BKN005 55 54     94%     30        
Jul 12 10:20 NW 7 2 Fog/Mist OVC004 55 54     94%     30        
Jul 12 10:15 NW 7 2 Fog/Mist OVC004 55 54     94%     30        
Jul 12 10:00 NNW 6 2.5 Fog/Mist OVC006 55 54     94%     30.01        
Jul 12 09:55 N 6 7 Mostly Cloudy BKN006 55 54     94%     30.01        
Jul 12 09:40 WNW 7 4 Fog/Mist BKN006 OVC010 55 55     100%     30        
Jul 12 09:35 NW 7 2 Fog/Mist OVC005 55 54     94%     30        
Jul 12 09:20 WNW 6 10 Cloudy OVC005 55 54     94%     30        
Jul 12 09:15 NW 6 10 Cloudy OVC004 55 54     94%     30        
Jul 12 09:00 WNW 6 1 Fog/Mist OVC004 55 54     94%     30        
Jul 12 08:55 WNW 6 1.5 Fog/Mist OVC004 55 54     94%     30        
Jul 12 08:35 Calm 3 Fog/Mist OVC005 55 54     94%     30        
Jul 12 08:20 N 6 4 Fog/Mist BKN005 OVC013 55 54     94%     30        
Jul 12 08:15 NNW 5 3 Fog/Mist BKN006 OVC011 55 54     94%     30        
Jul 12 08:00 NNW 5 5 Fog/Mist BKN004 OVC011 55 54     94%     30        
Jul 12 07:55 NNW 3 5 Fog/Mist BKN004 OVC011 55 54     94%     30        
Jul 12 07:40 NW 6 0.75 Fog/Mist OVC003 54 54     100%     30        
Jul 12 07:35 NW 7 1 Fog/Mist OVC003 54 54     100%     30        
Jul 12 07:20 NW 5 1.75 Fog/Mist OVC004 54 54     100%     30        
Jul 12 07:15 NW 6 2.5 Fog/Mist OVC004 54 54     100%     30        
Jul 12 07:00 NW 5 1.75 Fog/Mist OVC003 54 54     100%     30        
Jul 12 06:55 WNW 6 1.25 Fog/Mist OVC003 54 54     100%     30        
Jul 12 06:40 NW 5 0.75 Fog/Mist OVC003 54 54     100%     29.99        
Jul 12 06:35 NNW 3 1 Fog/Mist OVC003 54 54     100%     29.99        
Jul 12 06:15 NNW 5 10 Cloudy OVC005 54 54     100%     29.98        
Jul 12 06:00 NNW 5 1.5 Light Rain OVC004 54 54     100%     29.98        
Jul 12 05:55 NNW 7 1.25 Fog/Mist OVC004 54 54     100%     29.98        
Jul 12 05:40 NNE 5 7 Cloudy OVC004 54 54     100%     29.98        
Jul 12 05:35 N 5 10 Cloudy BKN004 OVC008 54 54     100%     29.98        
Jul 12 05:20 NNW 6 3 Fog/Mist OVC003 54 54     100%     29.98        
Jul 12 05:15 NNW 6 2 Fog/Mist OVC003 54 54     100%     29.98        
Jul 12 05:00 NNW 7 2 Fog/Mist OVC003 55 54     94%     29.98        
Jul 12 04:55 NNW 5 2.5 Fog/Mist OVC003 55 54     94%     29.98        
Jul 12 04:35 NW 6 1.5 Fog/Mist OVC003 55 54     94%     29.98        
Jul 12 04:20 NNW 5 1.5 Fog/Mist OVC003 55 54     94%     29.98        
Jul 12 04:15 NNW 7 1.25 Fog/Mist OVC003 55 54     94%     29.98        
Jul 12 04:00 NNW 6 2 Fog/Mist OVC003 55 54     94%     29.99        
Jul 12 03:55 NNW 5 2 Fog/Mist OVC003 55 54     94%     29.99        
Jul 12 03:40 NNW 7 1.25 Fog/Mist OVC003 55 55     100%     29.99        
Jul 12 03:35 NNW 5 1.5 Fog/Mist OVC003 55 54     94%     30        
Jul 12 03:20 NNW 7 1.75 Fog/Mist OVC003 55 54     94%     30        
Jul 12 03:15 NNW 8 2 Fog/Mist OVC003 55 54     94%     30        
Jul 12 02:55 NNW 8 1 Fog/Mist OVC003 55 55     100%     30        
Jul 12 02:40 NNW 8 2.5 Fog/Mist OVC003 55 55     100%     30        
Jul 12 02:35 NNW 9 3 Fog/Mist BKN003 OVC007 55 55     100%     30        
Jul 12 02:20 NW 7 1.25 Fog/Mist OVC003 55 55     100%     30.01        
Jul 12 02:15 NNW 6 1.5 Fog/Mist OVC003 55 55     100%     30.01        
Jul 12 02:00 NW 6 1.5 Fog/Mist OVC004 55 55     100%     30.01        
Jul 12 01:55 NNW 6 1.25 Fog/Mist OVC003 55 55     100%     30.01        
Jul 12 01:40 NNW 7 3 Fog/Mist OVC003 55 55     100%     30.02        
Jul 12 01:35 NNW 6 2 Fog/Mist OVC003 55 55     100%     30.02        
Jul 12 01:20 NW 6 1.5 Fog/Mist OVC003 55 55     100%     30.02        
Jul 12 01:15 NW 5 1.25 Fog/Mist OVC003 55 55     100%     30.02        
Jul 12 00:55 NNW 7 2 Fog/Mist OVC004 55 55     100%     30.03        
Jul 12 00:40 NW 6 1.5 Fog/Mist OVC003 55 55     100%     30.03        
Jul 12 00:35 NW 6 2 Fog/Mist OVC004 55 55     100%     30.03        
Jul 12 00:20 NW 6 1.25 Fog/Mist OVC003 55 55     100%     30.03        
Jul 12 00:15 NW 5 1.25 Fog/Mist OVC003 55 55     100%     30.03        
Jul 12 00:00 NW 6 1 Fog/Mist OVC003 55 55     100%     30.04        
Jul 11 23:55 NW 5 1 Fog/Mist OVC003 55 55     100%     30.04        
Jul 11 23:40 NW 5 1.25 Fog/Mist OVC003 55 55     100%     30.04        
Jul 11 23:35 NW 6 1.25 Fog/Mist OVC003 55 55     100%     30.04        
Jul 11 23:20 NW 6 1.25 Fog/Mist OVC003 55 55     100%     30.04        
Jul 11 23:15 NW 6 1.5 Fog/Mist OVC003 55 55     100%     30.05        
Jul 11 23:00 NNW 6 1.5 Fog/Mist OVC003 55 55     100%     30.05        
Jul 11 22:55 NW 8 2 Fog/Mist OVC003 55 55     100%     30.05        
Jul 11 22:35 NW 3 1.25 Fog/Mist OVC003 55 55     100%     30.05        
Jul 11 22:20 NNW 6 1.75 Fog/Mist OVC004 55 55     100%     30.05        
Jul 11 22:15 NNW 7 3 Fog/Mist OVC004 55 55     100%     30.05        
Jul 11 22:00 NNW 8 2 Fog/Mist OVC003 55 55     100%     30.05        
Jul 11 21:55 NNW 9 2 Fog/Mist OVC003 55 55     100%     30.05        
Jul 11 21:40 NNW 7 1.25 Fog/Mist OVC003 55 55     100%     30.05        
Jul 11 21:35 NNW 8 3 Fog/Mist OVC004 57 55     94%     30.05        
Jul 11 21:20 NW 10 1 Light Rain OVC003 57 55     94%     30.04        
Jul 11 21:15 NNW 9 2 Fog/Mist OVC003 55 55     100%     30.04        
Jul 11 21:00 NW 9 1.25 Fog/Mist OVC003 57 55     94%     30.04        
Jul 11 20:55 NNW 10 1.25 Fog/Mist OVC003 57 55     94%     30.04        
Jul 11 20:35 NNW 8 1.25 Fog/Mist OVC003 57 55     94%     30.04        
Jul 11 20:20 NNW 8 1.25 Fog/Mist OVC003 57 57     100%     30.05        
Jul 11 20:15 NNW 10 1 Fog/Mist OVC003 57 57     100%     30.05        
Jul 11 20:00 NNW 10 0.75 Fog/Mist OVC003 57 57     100%     30.05        
Jul 11 19:55 NNW 13 0.75 Fog/Mist OVC003 57 57     100%     30.05        
Jul 11 19:40 NNW 11 0.75 Fog/Mist OVC003 57 57     100%     30.05        
Jul 11 19:35 NNW 11 0.75 Fog/Mist OVC003 57 57     100%     30.05        
Jul 11 19:20 NNW 14 0.75 Fog/Mist OVC003 57 57     100%     30.06        
Jul 11 19:15 NNW 15 0.75 Fog/Mist OVC003 57 57     100%     30.05        
Jul 11 18:55 NNW 13 0.75 Fog/Mist OVC003 59 57     94%     30.06        
Jul 11 18:40 NNW 14 0.75 Fog/Mist OVC003 59 57     94%     30.06        
Jul 11 18:35 NNW 15 0.75 Fog/Mist OVC003 59 57     94%     30.06        
Jul 11 18:20 NNW 15 1.5 Fog/Mist OVC004 59 57     94%     30.06        
Jul 11 18:15 NNW 14 2 Fog/Mist OVC004 59 57     94%     30.06        
Jul 11 18:00 NNW 13 1.5 Fog/Mist OVC004 59 57     94%     30.06        
Jul 11 17:55 NNW 11 2 Fog/Mist OVC004 59 57     94%     30.06        
Jul 11 17:40 NNW 13 2.5 Fog/Mist OVC004 59 57     94%     30.07        
Jul 11 17:35 NNW 10 2.5 Fog/Mist OVC004 59 57     94%     30.07        
Jul 11 17:15 NNW 13 2 Fog/Mist OVC004 59 57     94%     30.07        
Jul 11 17:00 NNW 14 2 Fog/Mist OVC004 59 57     94%     30.07        
Jul 11 16:55 NNW 13 1.75 Fog/Mist OVC004 59 57     94%     30.07        
Jul 11 16:40 NNW 13 1.75 Fog/Mist OVC003 61 57     88%     30.07        
Jul 11 16:35 NNW 13 2 Fog/Mist OVC003 61 57     88%     30.08        
Jul 11 16:20 NNW 13 2 Fog/Mist OVC003 61 57     88%     30.08        
Jul 11 16:15 NNW 15 2.5 Fog/Mist OVC004 61 57     88%     30.08        
Jul 11 16:00 NNW 13 4 Fog/Mist OVC004 61 59     94%     30.09        
Jul 11 15:55 NNW 13 5 Fog/Mist OVC004 61 59     94%     30.09        
Jul 11 15:35 NNW 15 4 Fog/Mist OVC004 63 59     88%     30.09        
Jul 11 15:20 NNW 11 5 Fog/Mist OVC004 63 59     88%     30.1        
Jul 11 15:00 NNW 14 7 Cloudy OVC003 61 57     88%     30.1        
Jul 11 14:55 NNW 11 5 Fog/Mist OVC003 63 59     88%     30.1        
Jul 11 14:40 NNW 10 3 Fog/Mist OVC003 61 57     88%     30.1        
Jul 11 14:35 NNW 10 3 Fog/Mist OVC003 61 57     88%     30.1        
Jul 11 14:20 NNW 11 7 Mostly Cloudy BKN004 63 57     83%     30.1        
Jul 11 14:15 NNW 11 7 Mostly Cloudy BKN004 63 57     83%     30.1        
Jul 11 13:55 NW 11 7 Mostly Cloudy BKN004 63 57     83%     30.1        
Jul 11 13:40 NW 11 9 Mostly Cloudy BKN004 63 57     83%     30.11        
Jul 11 13:35 NW 11 9 Mostly Cloudy BKN004 63 57     83%     30.1        
Jul 11 13:20 NNW 13 8 Mostly Cloudy BKN005 63 57     83%     30.1        
Jul 11 13:15 NW 10 8 Mostly Cloudy BKN006 63 57     83%     30.1        
Jul 11 13:00 NW 11 10 Partly Cloudy SCT006 61 57     88%     30.1        
Jul 11 12:55 NNW 10 10 Mostly Clear FEW006 63 57     83%     30.11        
Jul 11 12:40 NW 13 9 Mostly Clear FEW006 61 57     88%     30.11        
Jul 11 12:35 NW 9 5 Fog/Mist FEW006 61 57     88%     30.11        
Jul 11 12:15 NW 10 9 Partly Cloudy SCT005 61 57     88%     30.11        
Jul 11 12:00 WNW 8 4 Fog/Mist BKN005 59 57     94%     30.11        
Jul 11 11:55 NW 8 3 Fog/Mist BKN005 59 57     94%     30.11        
Jul 11 11:00 WNW 8 10 Mostly Cloudy BKN006 59 57     94%     30.1        
Jul 11 10:55 WNW 7 10 Cloudy OVC006 59 57     94%     30.1        
Jul 11 10:40 WNW 8 9 Cloudy OVC006 59 57     94%     30.1        
Jul 11 09:40 WNW 7 1.25 Fog/Mist OVC003 57 57     100%     30.11        
Jul 11 09:35 WNW 7 2 Fog/Mist OVC003 57 57     100%     30.11        
Jul 11 08:55 N 5 0.5 Fog OVC003 57 55     94%     30.11        
Jul 11 08:40 NW 5 1.75 Fog/Mist OVC003 55 55     100%     30.11        
Jul 11 08:35 NW 5 3 Fog/Mist OVC004 55 55     100%     30.11        
Jul 11 08:00 NW 5 1.75 Fog/Mist OVC003 55 55     100%     30.1        
Jul 11 07:55 NW 5 1.5 Fog/Mist OVC003 55 55     100%     30.1        
Jul 11 07:40 NW 5 1.25 Fog/Mist OVC003 55 55     100%     30.1        
Jul 11 07:35 NW 5 1 Fog/Mist OVC003 55 55     100%     30.09        
Jul 11 07:20 WNW 5 1 Fog/Mist OVC003 55 55     100%     30.09        
Jul 11 07:15 NW 5 0.75 Fog/Mist OVC003 55 55     100%     30.09        
Jul 11 07:00 NNW 3 2.5 Fog/Mist OVC004 55 55     100%     30.09        
Jul 11 06:55 NW 5 2.5 Fog/Mist OVC004 55 55     100%     30.09        
Jul 11 06:00 Calm 0.5 Fog OVC002 55 55     100%     30.08        
Jul 11 05:55 Calm 0.5 Fog OVC002 55 55     100%     30.08        
Jul 11 05:40 NW 5 0.25 Fog OVC002 55 55     100%     30.08        
Jul 11 05:20 WNW 3 0.5 Fog OVC002 55 55     100%     30.08        
Jul 11 05:15 WNW 3 0.75 Fog/Mist OVC003 55 55     100%     30.08        
Jul 11 05:00 NNW 5 3 Fog/Mist OVC003 57 55     94%     30.08        
Jul 11 04:55 NW 7 4 Fog/Mist OVC003 57 55     94%     30.08        
Jul 11 04:40 NNW 5 5 Fog/Mist OVC004 57 55     94%     30.08        
Jul 11 04:35 NW 5 7 Cloudy OVC004 57 55     94%     30.08        
Jul 11 04:20 Calm 9 Cloudy OVC005 57 55     94%     30.08        
Jul 11 04:15 Calm 9 Cloudy OVC005 57 55     94%     30.08        
Jul 11 03:55 Calm 5 Fog/Mist OVC005 57 55     94%     30.08        
Jul 11 03:40 Calm 5 Fog/Mist OVC005 57 55     94%     30.08        
Jul 11 03:35 Calm 5 Fog/Mist OVC005 57 55     94%     30.08        
Jul 11 02:55 Calm 7 Cloudy OVC006 55 54     94%     30.09        
Jul 11 02:35 Calm 7 Cloudy OVC006 55 54     94%     30.09        
Jul 11 02:15 Calm 5 Fog/Mist OVC006 55 54     94%     30.09        
Jul 11 01:35 Calm 8 Mostly Cloudy BKN003 BKN009 54 52     94%     30.09        
Jul 11 01:00 Calm 10 Cloudy SCT002 OVC011 54 52     94%     30.09        
Jul 11 00:20 S 3 9 Mostly Cloudy BKN003 55 54     94%     30.09        
Jul 11 00:15 Calm 9 Mostly Cloudy BKN003 55 55     100%     30.09        
Jul 11 00:00 Calm 10 Partly Cloudy SCT003 55 55     100%     30.09        
Jul 10 23:55 NNW 3 9 Partly Cloudy SCT003 55 55     100%     30.09        
Jul 10 23:40 NNW 3 9 Partly Cloudy SCT003 55 55     100%     30.1        
Jul 10 23:20 NW 6 10 Clear CLR 55 55     100%     30.1        
Jul 10 23:15 NNW 6 9 Clear CLR 55 55     100%     30.1        
Jul 10 23:00 NW 6 7 Clear CLR 57 55     94%     30.1        
Jul 10 22:55 NW 7 7 Clear CLR 57 55     94%     30.1        
Jul 10 22:35 WNW 7 10 Clear CLR 57 55     94%     30.11        
Jul 10 22:20 NW 6 9 Clear CLR 57 55     94%     30.11        
Jul 10 22:15 NW 5 10 Clear CLR 57 55     94%     30.11        
Jul 10 22:00 NW 6 10 Clear CLR 57 55     94%     30.11        
Jul 10 21:55 NW 6 10 Clear CLR 57 55     94%     30.11        
Jul 10 21:40 NW 7 10 Clear CLR 57 55     94%     30.1        
Jul 10 21:35 NW 7 10 Clear CLR 57 55     94%     30.1        
Jul 10 21:20 NNW 7 10 Partly Cloudy SCT006 57 57     100%     30.1        
Jul 10 21:15 NNW 8 10 Mostly Cloudy BKN005 57 57     100%     30.1        
Jul 10 21:00 NNW 7 10 Cloudy OVC005 57 57     100%     30.1        
Jul 10 20:55 NNW 8 10 Cloudy OVC004 57 57     100%     30.1        
Jul 10 20:40 NNW 9 10 Cloudy OVC004 59 57     94%     30.1        
Jul 10 20:35 NNW 10 10 Cloudy OVC005 59 57     94%     30.1        
Jul 10 20:15 NNW 9 10 Mostly Cloudy BKN006 59 57     94%     30.1        
Jul 10 20:00 NNW 9 10 Mostly Cloudy BKN006 59 57     94%              
Jul 10 19:55 NNW 8 10 Mostly Cloudy BKN006 59 57     94%              
Jul 10 19:35 NNW 9 10 Mostly Cloudy BKN005 59 57     94%     30.1        
Jul 10 19:00 NNW 11 10 Mostly Clear FEW007 61 57     88%     30.1        
Jul 10 18:55 NW 11 10 Mostly Clear FEW007 61 57     88%     30.1        
Jul 10 18:40 NW 10 10 Mostly Clear FEW007 63 57     83%     30.1        
Jul 10 18:35 NW 11 10 Mostly Clear FEW007 63 57     83%     30.1        
Jul 10 18:20 NW 13 10 Mostly Clear FEW007 63 57     83%     30.1        
Jul 10 18:15 NW 13 10 Clear CLR 63 57     83%     30.1        
Jul 10 17:55 NNW 10 10 Clear CLR 64 57     77%     30.1        
Jul 10 17:35 NW 13 10 Clear CLR 63 57     83%     30.1        
Jul 10 17:20 NW 15 10 Clear CLR 63 57     83%     30.1        
Jul 10 17:15 NW 14 10 Clear CLR 63 57     83%     30.11        
Jul 10 16:55 NW 13 10 Clear CLR 63 57     83%              
Jul 10 16:40 NW 11 10 Clear CLR 63 57     83%     30.12        
Jul 10 16:35 NW 11 10 Clear CLR 63 57     83%     30.12        
Jul 10 16:15 NW 14 10 Clear CLR 64 57     77%     30.12        
Jul 10 16:00 NW 13 10 Clear CLR 64 57     77%     30.12        
Jul 10 15:55 NW 13 10 Clear CLR 64 57     77%     30.12        
Jul 10 15:40 NW 14 10 Clear CLR 64 57     77%     30.12        
Jul 10 15:35 NW 14 10 Clear CLR 64 57     77%     30.12        
Jul 10 15:20 NW 11 10 Clear CLR 64 57     77%     30.12        
Jul 10 15:15 NW 14 10 Clear CLR 64 57     77%     30.12        
Jul 10 15:00 NW 13 10 Clear CLR 64 57     77%     30.13        
Jul 10 14:35 NW 13 10 Clear CLR 64 57     77%     30.13        
Jul 10 14:20 NW 11 10 Clear CLR 64 57     77%     30.13        
Jul 10 14:00 NW 14 10 Clear CLR 64 57     77%     30.13        
Jul 10 13:35 NW 13 10 Clear CLR 64 59     83%     30.13        
Jul 10 13:20 NW 14 10 Clear CLR 64 59     83%     30.13        
Jul 10 12:40 NW 13 10 Cloudy OVC014 64 59     83%     30.13        
Jul 10 12:35 NW 13 10 Cloudy OVC014 64 59     83%     30.14        
Jul 10 12:20 NW 10 10 Cloudy OVC014 64 59     83%     30.14        
Jul 10 12:15 NW 10 10 Cloudy OVC014 64 59     83%     30.14        
Jul 10 11:55 NW 9 10 Cloudy OVC014 64 59     83%     30.14        
Jul 10 11:40 NW 10 10 Cloudy OVC014 63 57     83%     30.14        
Jul 10 11:35 NW 9 10 Cloudy OVC014 63 57     83%     30.14        
Jul 10 11:20 NW 8 10 Cloudy OVC014 63 57     83%     30.14        
Jul 10 11:00 NW 9 10 Cloudy OVC014 63 57     83%              
Jul 10 10:55 NW 9 10 Cloudy OVC014 63 57     83%     30.14        
Jul 10 10:40 NW 8 10 Clear   63 57     83%     30.13        
Jul 10 10:35 NW 8 10 Clear   63 57     83%     30.13        
Jul 10 10:15 NW 8 10 Clear   61 57     88%     30.13        
Jul 10 10:00 NW 8 10 Clear   61 57     88%     30.13        
Jul 10 09:55 NW 9 10 Clear   61 57     88%     30.13        
Jul 10 09:40 NW 6 10 Cloudy OVC014 61 57     88%     30.13        
Notice The following observation data may not be complete
Jul 10 09:20   10 Cloudy OVC014          %              
Jul 10 09:15 NW 8 10 Cloudy OVC014 61 57     88%     30.12        
Jul 10 09:00 NW 7 10 Cloudy OVC014 61 57     88%     30.12        
Jul 10 08:35 NW 6 10 Cloudy OVC014 59 57     94%     30.12        
Jul 10 08:20 NW 6 10 Cloudy OVC014 59 57     94%     30.12        
Jul 10 08:00 NW 6 10 Cloudy OVC014 59 57     94%     30.11        
Jul 10 07:55 NW 6 10 Cloudy OVC014 59 57     94%     30.11        
Jul 10 07:40 NNW 6 10 Cloudy OVC014 59 57     94%     30.11        
Jul 10 07:35 NW 5 10 Cloudy FEW006 OVC014 59 57     94%     30.11        
Jul 10 07:20 NW 5 10 Cloudy SCT006 OVC014 59 57     94%     30.1        
Jul 10 07:15 NNW 5 10 Cloudy BKN006 OVC014 59 57     94%     30.1        
Jul 10 07:00 NW 5 10 Cloudy OVC006 59 57     94%     30.1        
Jul 10 06:55 NW 3 10 Cloudy OVC006 59 57     94%     30.1        
Jul 10 06:40 NW 5 9 Cloudy BKN008 OVC014 59 57     94%     30.1        
Jul 10 06:35 NW 5 8 Cloudy SCT008 OVC014 59 57     94%     30.1        
Jul 10 06:15 NW 6 10 Cloudy OVC012 59 57     94%     30.1        
Jul 10 06:00 NW 5 10 Cloudy OVC012 59 57     94%     30.1        
Jul 10 05:55 NNW 5 10 Cloudy OVC012 59 57     94%     30.1        
Jul 10 05:40 NW 6 10 Cloudy OVC014 59 57     94%     30.1        
Jul 10 05:35 NW 5 10 Cloudy OVC014 59 57     94%     30.1        
Jul 10 05:20 NNW 5 10 Cloudy OVC014 59 57     94%     30.09        
Jul 10 05:15 NNW 6 10 Cloudy OVC014 59 57     94%     30.09        
Jul 10 05:00 NW 6 10 Cloudy OVC014 59 57     94%     30.08        
Jul 10 04:55 NNW 5 10 Cloudy OVC014 59 57     94%     30.08        
Jul 10 04:40 NNW 7 10 Cloudy OVC014 59 57     94%     30.08        
Jul 10 04:35 NNW 8 10 Cloudy OVC014 59 57     94%     30.08        
Jul 10 04:15 NNW 7 10 Cloudy OVC014 59 57     94%     30.08        
Jul 10 04:00 NNW 7 10 Cloudy FEW008 OVC014 59 57     94%     30.07        
Jul 10 03:40 NNW 8 10 Cloudy SCT008 OVC014 59 57     94%     30.07        
Jul 10 03:35 NNW 9 10 Cloudy BKN008 OVC012 59 57     94%     30.07        
Jul 10 03:20 NNW 8 10 Cloudy OVC008 59 57     94%     30.07        
Jul 10 03:15 NNW 6 10 Cloudy OVC008 59 57     94%     30.07        
Jul 10 03:00 NNW 8 10 Cloudy OVC008 59 57     94%     30.07        
Jul 10 02:55 N 8 10 Cloudy OVC008 59 57     94%     30.07        
Jul 10 02:40 NNW 8 10 Cloudy BKN008 OVC012 59 59     100%     30.07        
Jul 10 02:35 NNW 7 10 Cloudy BKN006 OVC012 59 59     100%     30.07        
Jul 10 02:00 NNW 6 8 Cloudy OVC004 59 59     100%     30.08        
Jul 10 01:55 NNW 6 8 Cloudy OVC004 59 59     100%     30.08        
Jul 10 01:40 NW 6 7 Cloudy OVC004 59 59     100%     30.08        
Jul 10 01:35 NNW 5 6 Fog/Mist OVC003 59 59     100%     30.08        
Jul 10 01:20 NNW 5 5 Fog/Mist OVC003 59 57     94%     30.08        
Jul 10 01:15 NNW 6 5 Fog/Mist OVC003 59 57     94%     30.08        
Jul 10 01:00 NW 7 4 Fog/Mist OVC003 59 59     100%     30.08        
Jul 10 00:55 NW 6 4 Fog/Mist OVC003 59 59     100%     30.08        
Jul 10 00:40 NW 7 5 Fog/Mist OVC003 59 59     100%     30.08        
Jul 10 00:35 NNW 6 4 Fog/Mist OVC003 59 57     94%     30.08        
Jul 10 00:15 NNW 7 1.5 Fog/Mist OVC003 59 57     94%     30.08        
Jul 09 23:55 NNW 8 0.75 Fog/Mist OVC003 59 59     100%     30.08        
Jul 09 23:35 NNW 8 1 Fog/Mist OVC003 59 59     100%     30.08        
Jul 09 23:20 NNW 9 2 Fog/Mist OVC003 59 59     100%     30.09        
Jul 09 23:15 NNW 7 3 Fog/Mist OVC003 59 59     100%     30.09        
Jul 09 23:00 NNW 6 1 Fog/Mist OVC003 59 59     100%     30.09        
Jul 09 22:55 NNW 6 0.5 Fog OVC003 59 59     100%     30.09        
Jul 09 22:40 NNW 6 1 Fog/Mist OVC003 59 59     100%     30.09        
Jul 09 22:35 NNW 7 1.5 Fog/Mist OVC003 59 59     100%     30.09        
Jul 09 22:20 NW 5 2 Fog/Mist OVC003 59 59     100%     30.09        
Jul 09 22:15 NW 6 2.5 Fog/Mist OVC003 59 59     100%     30.09        
Jul 09 21:55 NW 7 3 Fog/Mist OVC003 59 59     100%     30.09   0    
Jul 09 21:40 NW 5 5 Fog/Mist OVC003 59 59     100%     30.08   0    
Jul 09 21:35 NNW 5 5 Fog/Mist OVC003 59 59     100%     30.08   0    
Jul 09 21:00 Calm 1.75 Fog/Mist OVC003 59 59     100%     30.08        
Jul 09 20:55 Calm 1.75 Fog/Mist OVC003 59 59     100%     30.08        
Jul 09 20:40 Calm 1 Fog/Mist OVC003 59 59     100%     30.08        
Jul 09 20:35 Calm 0.75 Fog/Mist OVC003 59 59     100%     30.08        
Jul 09 20:00 Calm 0.75 Fog/Mist OVC003 59 57     94%     30.08        
Jul 09 19:55 Calm 0.75 Fog/Mist OVC003 59 57     94%     30.07        
Jul 09 19:40 SSE 3 0.75 Fog/Mist OVC003 59 59     100%     30.08        
Jul 09 19:35 SSE 3 0.75 Fog/Mist OVC003 59 59     100%     30.08        
Jul 09 19:20 SSE 5 0.75 Fog/Mist OVC002 59 59     100%     30.08        
Jul 09 19:15 SSE 3 0.75 Fog/Mist OVC002 59 59     100%     30.08        
Jul 09 19:00 S 3 0.75 Fog/Mist OVC002 59 57     94%     30.08        
Jul 09 18:55 SSE 3 0.75 Fog/Mist OVC003 59 57     94%     30.08        
Jul 09 18:35 Calm 1 Fog/Mist OVC003 59 57     94%     30.07        
Jul 09 18:20 Calm 0.75 Fog/Mist OVC003 59 57     94%     30.07        
Jul 09 18:15 Calm 0.75 Fog/Mist OVC003 59 57     94%     30.07        
Jul 09 18:00 WSW 3 2 Fog/Mist OVC004 59 57     94%     30.07        
Jul 09 17:55 WSW 3 2.5 Fog/Mist OVC004 59 57     94%     30.07        
Jul 09 17:40 WSW 5 1.75 Fog/Mist OVC004 59 57     94%     30.08        
Jul 09 17:35 W 5 2 Fog/Mist BKN004 OVC008 59 57     94%     30.08        
Jul 09 17:20 WSW 5 3 Fog/Mist OVC005 61 59     94%     30.08        
Jul 09 16:55 WNW 3 5 Fog/Mist OVC005 61 57     88%     30.09        
Jul 09 16:40 WNW 5 1.5 Fog/Mist OVC004 59 57     94%     30.09        
Jul 09 16:35 W 5 1 Fog/Mist OVC004 59 57     94%     30.09        
Jul 09 16:00 WNW 6 1 Fog/Mist OVC004 61 57     88%     30.09        
Jul 09 15:40 W 3 3 Fog/Mist BKN005 BKN013 59 57     94%     30.1        
Jul 09 15:35 WSW 6 4 Fog/Mist BKN005 OVC013 61 57     88%     30.1        
Jul 09 15:20 W 5 3 Fog/Mist SCT005 BKN013 61 57     88%     30.1        
Jul 09 15:15 W 6 3 Fog/Mist FEW005 BKN013 61 57     88%     30.1        
Jul 09 15:00 W 7 2.5 Fog/Mist SCT006 BKN013 61 57     88%     30.09        
Jul 09 14:55 W 6 4 Fog/Mist SCT006 BKN013 61 57     88%     30.09        
Jul 09 14:35 W 5 2 Fog/Mist BKN006 BKN013 61 57     88%     30.09        
Jul 09 14:20 W 6 4 Fog/Mist SCT008 BKN013 63 57     83%     30.09        
Jul 09 14:15 W 5 5 Fog/Mist SCT008 BKN013 61 57     88%     30.09        
Jul 09 14:00 W 7 6 Fog/Mist FEW008 BKN013 61 57     88%     30.09        
Jul 09 13:55 W 7 5 Fog/Mist FEW008 BKN013 61 57     88%     30.09        
Jul 09 13:40 W 7 7 Mostly Cloudy FEW008 BKN013 61 57     88%     30.09        
Jul 09 13:35 W 7 7 Cloudy FEW008 OVC013 61 57     88%     30.09        
Jul 09 13:20 W 8 9 Cloudy OVC013 63 57     83%     30.09        
Jul 09 13:15 W 7 9 Cloudy OVC013 63 57     83%     30.08        
Jul 09 13:00 W 8 10 Cloudy OVC013 63 57     83%     30.09        
Jul 09 12:55 WSW 6 10 Cloudy OVC013 63 57     83%     30.09        
Jul 09 12:35 W 8 10 Cloudy OVC013 63 57     83%     30.08        
Jul 09 12:20 WSW 8 10 Cloudy OVC013 63 57     83%     30.08        
Jul 09 12:15 W 6 10 Mostly Cloudy BKN013 63 57     83%     30.08        
Jul 09 12:00 WSW 6 10 Mostly Cloudy FEW009 BKN013 59 55     88%     30.08        
Jul 09 11:55 WSW 5 10 Cloudy FEW009 OVC013 61 55     82%     30.08        
Jul 09 11:40 WSW 6 9 Mostly Cloudy SCT009 BKN013 59 55     88%     30.09        
Jul 09 11:35 SW 6 10 Mostly Cloudy BKN009 BKN013 59 55     88%     30.09        
Jul 09 11:20 N 5 8 Mostly Cloudy FEW007 BKN014 61 57     88%     30.09        
Jul 09 11:15 Calm 7 Mostly Cloudy FEW007 BKN014 59 55     88%     30.09        
Jul 09 10:55 WSW 5 8 Mostly Cloudy BKN007 BKN014 59 55     88%     30.09        
Jul 09 10:40 SW 5 2.5 Fog/Mist BKN007 BKN013 59 55     88%     30.08        
Jul 09 10:35 WSW 5 3 Fog/Mist BKN007 OVC013 59 55     88%     30.08        
Jul 09 10:20 W 3 2.5 Fog/Mist BKN009 BKN013 59 55     88%     30.08        
Jul 09 10:00 NW 3 2.5 Fog/Mist BKN009 OVC013 57 55     94%     30.08        
Jul 09 09:55 NW 5 3 Fog/Mist BKN009 OVC013 57 55     94%     30.08        
Jul 09 09:40 N 3 4 Fog/Mist OVC011 57 55     94%     30.08        
Jul 09 09:35 NW 5 7 Cloudy SCT008 OVC013 57 55     94%     30.08        
Jul 09 09:15 Calm 5 Fog/Mist BKN008 OVC013 55 54     94%     30.08        
Jul 09 08:40 SSE 3 7 Cloudy OVC008 55 54     94%     30.07        
Jul 09 08:35 S 3 8 Cloudy OVC008 55 54     94%     30.07        
Jul 09 08:20 S 6 9 Cloudy OVC010 55 54     94%     30.07        
Jul 09 08:15 SSE 5 8 Cloudy OVC010 55 54     94%     30.06        
Jul 09 08:00 Calm 8 Cloudy OVC010 55 54     94%     30.06        
Jul 09 07:55 Calm 7 Cloudy OVC010 55 54     94%     30.06        
Jul 09 07:35 S 3 7 Cloudy OVC010 55 54     94%     30.05        
Jul 09 07:00 Calm 10 Cloudy OVC012 55 54     94%     30.04        
Jul 09 06:55 Calm 9 Cloudy OVC012 55 54     94%     30.04        
Jul 09 06:35 Calm 7 Cloudy OVC012 55 54     94%     30.04        
Jul 09 06:20 Calm 8 Cloudy OVC012 55 54     94%     30.04        
Jul 09 06:15 Calm 9 Cloudy OVC012 55 54     94%     30.04        
Jul 09 06:00 NW 3 10 Cloudy OVC012 55 54     94%     30.04        
Jul 09 05:55 NW 5 10 Cloudy OVC012 55 54     94%     30.03        
Jul 09 05:35 Calm 10 Cloudy OVC012 55 54     94%     30.03        
Jul 09 05:15 WNW 6 10 Cloudy OVC010 55 54     94%     30.03        
Jul 09 05:00 NW 7 10 Cloudy OVC010 55 52     88%     30.03        
Jul 09 04:55 WNW 7 10 Cloudy OVC010 55 54     94%     30.03        
Jul 09 04:40 WNW 8 10 Cloudy OVC010 55 54     94%     30.03        
Jul 09 04:35 WNW 7 10 Cloudy OVC010 55 54     94%     30.03        
Jul 09 04:15 WNW 7 10 Cloudy OVC010 55 54     94%     30.03        
Jul 09 04:00 NW 8 10 Cloudy OVC010 55 54     94%     30.03        
Jul 09 03:55 NW 9 10 Cloudy OVC010 55 54     94%     30.03        
Jul 09 03:40 NW 8 10 Cloudy OVC010 55 54     94%     30.03        
Jul 09 03:35 NW 7 10 Cloudy OVC012 55 54     94%     30.03        
Jul 09 03:15 WNW 3 10 Cloudy OVC012 55 54     94%     30.03        
Jul 09 03:00 NW 5 10 Cloudy OVC012 55 54     94%     30.03        
Jul 09 02:55 NW 5 10 Cloudy OVC012 55 54     94%     30.03        
Jul 09 02:40 NW 6 10 Cloudy OVC012 55 54     94%     30.03        
Jul 09 02:35 NW 5 9 Cloudy OVC012 55 54     94%     30.03        
Jul 09 02:20 NW 3 10 Cloudy OVC012 55 54     94%     30.04        
Jul 09 02:15 WNW 3 10 Cloudy OVC012 55 54     94%     30.04        
Jul 09 02:00 Calm 10 Cloudy OVC012 55 54     94%     30.04        
Jul 09 01:55 Calm 10 Cloudy OVC012 55 54     94%     30.04        
Jul 09 01:35 Calm 10 Cloudy OVC012 55 54     94%     30.04        
Jul 09 01:00 Calm 10 Cloudy OVC012 55 54     94%     30.05        
Jul 09 00:55   10 Cloudy OVC012 55 54     94%     30.05        
Jul 09 00:40 Calm 10 Cloudy OVC012 55 54     94%     30.06        
Jul 09 00:35 Calm 10 Cloudy OVC012 55 54     94%     30.06        
Jul 09 00:20 WNW 3 10 Cloudy OVC012 55 54     94%     30.06        
Jul 09 00:00 NW 6 10 Cloudy OVC012 55 54     94%     30.06        
Jul 08 23:55 NW 6 10 Cloudy OVC012 55 54     94%     30.06        
Jul 08 23:40 NW 6 10 Cloudy OVC012 55 54     94%     30.06        
Jul 08 23:35 NW 7 10 Cloudy OVC012 55 54     94%     30.06        
Jul 08 23:15 NW 8 10 Cloudy OVC012 57 54     88%     30.07        
Jul 08 23:00 WNW 7 10 Cloudy OVC012 57 54     88%     30.07        
Jul 08 22:55 WNW 6 10 Cloudy OVC012 57 54     88%              
Jul 08 22:40 WNW 6 10 Cloudy OVC012 57 54     88%     30.07        
Jul 08 22:35 WNW 5 10 Cloudy OVC012 57 54     88%     30.07        
Jul 08 22:20 WNW 3 10 Cloudy OVC014 57 54     88%     30.07        
Jul 08 22:15 WNW 5 10 Cloudy OVC014 57 54     88%     30.07        
Jul 08 22:00 WNW 5 10 Cloudy OVC014 57 54     88%     30.06        
Jul 08 21:55 NW 6 10 Cloudy OVC014 57 54     88%     30.06        
Jul 08 21:40 NW 8 10 Cloudy OVC014 57 54     88%     30.06        
Jul 08 21:35 NW 8 10 Cloudy OVC014 57 54     88%     30.06        
Jul 08 21:15 NW 10 10 Cloudy OVC014 57 54     88%     30.05        
Jul 08 21:00 NW 9 10 Cloudy OVC014 57 54     88%     30.04        
Jul 08 20:55 NW 8 10 Cloudy OVC014 57 54     88%     30.04        
Jul 08 20:40 NW 10 10 Cloudy OVC012 57 54     88%     30.05        
Jul 08 20:35 NW 10 10 Cloudy OVC012 57 54     88%     30.05        
Jul 08 20:20 NW 10 10 Cloudy OVC012 57 54     88%     30.05        
Jul 08 20:15 NW 13 10 Cloudy OVC012 57 54     88%     30.05        
Jul 08 20:00 NW 9 10 Cloudy OVC014 57 54     88%     30.06        
Jul 08 19:55 NW 9 10 Cloudy OVC014 57 54     88%     30.05        
Jul 08 19:40 NW 8 10 Cloudy OVC014 57 54     88%     30.05        
Jul 08 19:35 NW 7 10 Cloudy OVC014 57 54     88%     30.05        
Jul 08 19:20 NW 10 10 Cloudy OVC014 57 54     88%     30.05        
Jul 08 19:15 NW 8 10 Cloudy OVC014 57 54     88%     30.05        
Jul 08 18:55 NNW 9 10 Cloudy OVC012 57 54     88%     30.05        
Jul 08 18:40 NW 8 9 Cloudy OVC012 57 54     88%     30.05        
Jul 08 18:35 NW 9 9 Cloudy OVC012 57 54     88%     30.05        
Jul 08 18:20 NW 8 9 Cloudy OVC012 57 54     88%     30.05        
Jul 08 18:00 NW 10 10 Cloudy OVC012 57 54     88%     30.05        
Jul 08 17:55 NW 10 10 Cloudy OVC012 57 54     88%     30.05        
Jul 08 17:40 WNW 8 10 Cloudy OVC012 57 54     88%     30.05        
Jul 08 17:35 NW 7 10 Cloudy OVC012 57 54     88%     30.05        
Jul 08 17:15 WNW 8 10 Cloudy OVC012 57 54     88%     30.06        
Jul 08 17:00 WNW 7 8 Cloudy OVC012 57 54     88%     30.06        
Jul 08 16:55 WNW 7 9 Cloudy OVC012 57 54     88%     30.06        
Jul 08 16:40 WNW 7 10 Cloudy OVC012 57 54     88%     30.06        
Jul 08 16:35 WNW 8 10 Cloudy OVC012 57 54     88%     30.06        
Jul 08 16:20 NW 11 10 Cloudy OVC012 57 54     88%     30.06        
Jul 08 16:15 NW 9 10 Cloudy OVC012 59 54     82%     30.06        
Jul 08 16:00 WNW 8 9 Cloudy OVC012 59 54     82%     30.06        
Jul 08 15:40 WNW 8 9 Cloudy OVC012 57 54     88%     30.06        
Jul 08 15:35 WNW 8 9 Cloudy OVC012 59 54     82%     30.06        
Jul 08 15:15 WNW 8 10 Cloudy OVC012 59 54     82%     30.07        
Jul 08 15:00 WNW 8 9 Cloudy OVC012 59 54     82%     30.06        
Jul 08 14:55 WNW 8 10 Cloudy OVC012 59 54     82%     30.06        
Jul 08 14:35 WNW 9 10 Cloudy OVC012 57 54     88%     30.07        
Jul 08 14:20 WNW 9 9 Cloudy OVC012 59 54     82%     30.07        
Jul 08 14:15 W 8 9 Cloudy OVC012 57 54     88%     30.07        
Notice The following observation data may not be complete
Jul 08 14:00   9 Cloudy OVC012          %              
Jul 08 13:55 W 9 8 Cloudy OVC012 57 54     88%     30.07        
Jul 08 13:35 W 7 9 Cloudy OVC012 57 54     88%     30.07        
Jul 08 13:00 W 9 7 Cloudy OVC012 57 54     88%     30.07        
Jul 08 12:55 W 9 7 Cloudy OVC012 57 54     88%     30.07        
Jul 08 12:35 W 8 8 Cloudy OVC012 57 54     88%     30.07        
Jul 08 12:20 W 8 8 Cloudy OVC012 57 54     88%     30.07        
Jul 08 12:00 W 8 8 Cloudy OVC012 57 54     88%     30.06        
Jul 08 11:55 W 7 8 Cloudy OVC012 57 54     88%     30.06        
Jul 08 11:20 W 9 9 Cloudy OVC012 57 54     88%     30.06        
Jul 08 11:15 WSW 8 8 Cloudy OVC012 57 54     88%     30.05        
Jul 08 11:00 WSW 7 7 Cloudy OVC012 57 54     88%     30.05        
Jul 08 10:55 W 7 7 Cloudy OVC012 57 54     88%     30.05        
Jul 08 10:40 W 8 7 Cloudy OVC012 57 54     88%     30.05        
Jul 08 10:35 W 8 7 Cloudy OVC012 57 54     88%     30.05        
Jul 08 10:20 W 7 7 Cloudy OVC012 57 54     88%     30.04        
Jul 08 10:15 W 7 7 Cloudy OVC012 57 54     88%     30.04        
Jul 08 09:55 W 10 9 Cloudy OVC012 57 54     88%     30.04        
Jul 08 09:40 W 9 9 Cloudy OVC012 57 54     88%     30.03        
Jul 08 09:35 W 9 8 Cloudy OVC010 57 54     88%     30.03        
Jul 08 09:20 WNW 8 9 Cloudy OVC010 57 54     88%     30.03        
Jul 08 09:15 W 9 9 Cloudy OVC010 57 54     88%     30.03        
Jul 08 09:00 WNW 7 7 Cloudy OVC010 57 54     88%     30.03        
Jul 08 08:55 WNW 7 7 Cloudy OVC010 57 54     88%     30.03        
Jul 08 08:40 WNW 10 7 Cloudy OVC008 55 54     94%     30.02        
Jul 08 08:35 WNW 9 7 Cloudy OVC008 55 54     94%     30.02        
Jul 08 08:15 WNW 10 7 Cloudy OVC008 55 54     94%     30.02        
Jul 08 08:00 NW 7 4 Fog/Mist OVC008 55 54     94%     30.02        
Jul 08 07:55 NW 7 4 Fog/Mist OVC008 55 54     94%     30.02        
Jul 08 07:40 NW 10 4 Fog/Mist OVC008 55 54     94%     30.01        
Jul 08 07:35 NW 7 4 Fog/Mist OVC008 55 54     94%     30.02        
Jul 08 07:20 NW 8 4 Fog/Mist OVC008 55 54     94%     30.01        
Jul 08 07:15 NW 6 4 Fog/Mist OVC008 55 54     94%     30.01        
Jul 08 07:00 NW 7 5 Fog/Mist OVC008 55 54     94%     30        
Jul 08 06:55 NW 11 5 Fog/Mist OVC008 55 54     94%     30        
Jul 08 06:35 NW 10 5 Fog/Mist OVC006 55 54     94%     30        
Jul 08 06:20 NW 11 5 Fog/Mist OVC006 55 54     94%     30        
Jul 08 06:15 NW 13 5 Fog/Mist OVC006 55 54     94%     29.99        
Jul 08 06:00 NW 10 5 Fog/Mist OVC006 55 54     94%     29.99        
Jul 08 05:55 NW 9 5 Fog/Mist OVC006 55 54     94%     29.99        
Jul 08 05:40 NW 10 4 Fog/Mist OVC006 55 54     94%     29.98        
Jul 08 05:35 NW 7 5 Fog/Mist OVC006 55 54     94%     29.98        
Jul 08 05:20 NW 9 3 Fog/Mist OVC006 55 54     94%     29.98        
Jul 08 05:15 NW 7 3 Fog/Mist OVC006 55 54     94%     29.98        
Jul 08 04:55 NW 7 5 Fog/Mist OVC007 55 54     94%     29.97        
Jul 08 04:40 NW 9 5 Fog/Mist OVC007 55 54     94%     29.97        
Jul 08 04:35 WNW 8 4 Fog/Mist OVC007 55 54     94%     29.97        
Jul 08 04:20 NW 8 4 Fog/Mist OVC007 55 54     94%     29.97        
Jul 08 04:15 NW 9 3 Fog/Mist OVC007 55 54     94%     29.98        
Jul 08 04:00 NW 9 3 Fog/Mist OVC007 55 54     94%     29.98        
Jul 08 03:55 NW 8 3 Fog/Mist OVC007 55 54     94%     29.98        
Jul 08 03:40 NW 7 4 Fog/Mist OVC009 55 54     94%     29.98        
Jul 08 03:35 NW 7 4 Fog/Mist OVC007 55 54     94%     29.98        
Jul 08 03:20 WNW 5 3 Fog/Mist OVC007 55 54     94%     29.98        
Jul 08 03:15 WNW 6 3 Fog/Mist OVC009 55 54     94%     29.99        
Jul 08 02:55 NW 7 3 Fog/Mist OVC007 55 54     94%     29.99        
Jul 08 02:40 NW 7 3 Fog/Mist OVC009 55 54     94%     29.99        
Jul 08 02:35 NW 7 3 Fog/Mist OVC009 55 54     94%     29.99        
Jul 08 02:20 NW 8 3 Fog/Mist OVC009 55 54     94%     29.99        
Jul 08 02:15 NW 8 3 Fog/Mist OVC009 55 54     94%     29.99        
Jul 08 02:00 NW 7 4 Fog/Mist OVC009 55 54     94%     29.99        
Jul 08 01:55 WNW 6 3 Fog/Mist OVC009 55 54     94%     29.99        
Jul 08 01:40 WNW 6 3 Fog/Mist OVC009 55 54     94%     30        
Jul 08 01:35 WNW 7 3 Fog/Mist OVC009 55 54     94%     30        
Jul 08 01:20 NW 9 3 Fog/Mist OVC009 55 54     94%     30        
Jul 08 01:15 WNW 5 3 Fog/Mist OVC009 55 54     94%     30        
Jul 08 00:55 WNW 6 4 Fog/Mist OVC009 55 54     94%     30        
Jul 08 00:40 NW 6 4 Fog/Mist OVC009 55 54     94%     30        
Jul 08 00:35 NW 7 3 Fog/Mist OVC009 55 54     94%     30        
Jul 08 00:20 NW 10 4 Fog/Mist OVC009 55 54     94%     30        
Jul 08 00:15 NW 8 3 Fog/Mist OVC009 55 54     94%     30        
Jul 08 00:00 WNW 7 5 Fog/Mist OVC009 55 54     94%     30.01        
Jul 07 23:55 NW 8 5 Fog/Mist OVC009 55 54     94%     30.01        
Jul 07 23:40 NW 5 5 Fog/Mist OVC009 55 54     94%     30.01        
Jul 07 23:35 NW 7 5 Fog/Mist OVC009 55 54     94%     30.01        
Jul 07 23:20 NW 7 7 Cloudy OVC011 57 54     88%     30        
Jul 07 23:15 NW 8 7 Cloudy OVC011 57 54     88%     30        
Jul 07 23:00 WNW 8 7 Cloudy OVC011 57 54     88%     30        
Jul 07 22:55 WNW 7 6 Fog/Mist OVC011 57 54     88%     30        
Jul 07 22:35 WNW 5 7 Cloudy OVC011 57 54     88%     30        
Jul 07 22:20 WNW 5 6 Fog/Mist OVC013 57 54     88%     30        
Jul 07 22:15 W 5 6 Fog/Mist OVC013 57 54     88%     30        
Jul 07 22:00 WSW 5 6 Fog/Mist OVC013 57 54     88%     30        
Jul 07 21:55 WSW 3 6 Fog/Mist OVC013 57 54     88%     30        
Jul 07 21:40 WSW 5 7 Cloudy OVC013 57 54     88%     29.99        
Jul 07 21:35 WSW 5 7 Cloudy OVC013 57 54     88%     29.99        
Jul 07 21:20 WSW 3 7 Cloudy OVC013 57 54     88%     29.99        
Jul 07 21:15 SW 5 7 Cloudy OVC013 57 54     88%     29.99        
Jul 07 20:55 SW 5 8 Cloudy OVC013 57 54     88%     29.99        
Jul 07 20:40 SW 5 6 Fog/Mist OVC013 57 54     88%     29.99        
Jul 07 20:35 SW 6 6 Fog/Mist OVC013 57 54     88%     29.99        
Jul 07 20:20 SW 5 6 Fog/Mist OVC013 57 54     88%     29.99        
Jul 07 20:15 SW 6 7 Cloudy OVC013 57 54     88%     29.99        
Jul 07 20:00 SW 7 6 Fog/Mist BKN013 57 54     88%     29.98        
Jul 07 19:55 SW 7 7 Cloudy OVC013 57 54     88%     29.98        
Jul 07 19:40 SW 6 7 Cloudy OVC013 57 54     88%     29.98        
Jul 07 19:35 SSW 6 6 Fog/Mist OVC013 57 54     88%     29.98        
Jul 07 19:15 WSW 6 6 Fog/Mist OVC013 57 54     88%     29.99        
Jul 07 19:00 WSW 5 6 Fog/Mist OVC013 57 54     88%     29.98        
Jul 07 18:55 WSW 5 6 Fog/Mist OVC013 57 54     88%     29.98        
Jul 07 18:40 W 5 5 Clear   57 54     88%     29.98        
Jul 07 18:35 WSW 5 6 Clear   57 54     88%     29.98        
Jul 07 18:20 WSW 5 7 Clear   57 54     88%     29.98        
Jul 07 18:15 WSW 6 6 Clear   57 54     88%     29.98        
Jul 07 18:00 WSW 7 6 Clear   57 54     88%     29.98        
Jul 07 17:55 WSW 7 5 Clear   57 54     88%     29.98        
Jul 07 17:35 W 7 6 Fog/Mist OVC011 57 54     88%     29.99        
Jul 07 17:20 W 6 7 Cloudy OVC011 57 54     88%     29.99        
Jul 07 17:15 W 8 7 Cloudy OVC011 57 54     88%     29.99        
Jul 07 17:00 W 7 6 Haze OVC011 57 54     88%     29.99        
Jul 07 16:55 W 9 6 Fog/Mist OVC011 57 54     88%     30        
Jul 07 16:40 W 7 7 Cloudy OVC011 57 54     88%     29.99        
Jul 07 16:35 W 8 7 Cloudy OVC011 57 54     88%     30